GFSSGP_850_rhum_000.txt.gz
RH
1 4 10 17 19 14 13 17 19 23 23 22 24 22 30 40 45 60 53 62 75 74 68 71 76 78 80 82 82 82 82 85 88 91 89 86 83 82 82 80 77 72 66 57 43 34 28 26 28
5 16 15 15 18 16 15 17 19 22 21 18 20 19 28 38 44 49 52 64 69 89 92 67 70 67 74 82 80 77 81 82 82 78 76 68 70 67 64 57 53 48 42 37 32 32 36 40 50
11 17 13 16 14 13 18 18 24 20 18 18 20 29 31 35 40 45 54 64 75 84 77 56 61 68 73 71 73 77 79 76 70 70 65 58 55 50 44 44 44 39 24 13 15 22 37 48 59
14 13 11 12 12 12 14 20 19 19 23 21 20 30 33 36 42 45 53 60 62 67 46 46 38 41 55 60 65 70 72 74 69 58 57 50 45 44 45 44 41 31 9 18 21 22 29 41 50
19 14 13 13 14 14 16 17 17 19 20 19 18 32 40 48 44 43 46 50 55 45 25 22 23 27 34 37 38 40 42 45 46 47 46 42 42 44 44 42 40 23 15 22 22 23 24 24 21
13 10 15 14 16 15 15 15 17 20 17 16 19 29 42 46 44 43 41 42 50 54 24 22 23 22 22 25 31 38 41 42 41 39 41 40 40 38 37 39 31 18 16 22 23 22 22 22 21
16 15 15 16 17 17 17 16 12 11 14 15 18 28 38 42 49 41 37 39 51 56 30 24 23 22 23 27 33 34 36 37 33 35 40 39 34 36 31 32 25 14 16 20 22 22 17 17 18
11 11 13 17 16 16 12 11 11 11 16 14 15 24 32 45 47 42 37 37 43 53 57 62 55 40 59 37 14 20 23 25 30 39 44 40 75 72 74 52 45 31 23 26 34 30 21 17 18
8 10 14 12 11 10 8 7 8 8 14 14 20 20 32 45 47 42 38 36 39 47 55 56 62 65 65 56 31 36 30 52 56 75 50 81 80 83 73 60 70 64 64 57 52 52 50 47 46
7 10 8 5 6 6 6 6 6 8 12 12 16 26 43 49 46 42 38 35 40 49 54 62 63 62 46 55 62 60 62 61 68 72 69 87 71 74 76 78 72 74 69 69 72 65 71 73 53
6 8 6 5 6 5 5 5 5 7 9 9 13 17 40 46 45 40 34 33 40 49 51 58 63 46 64 55 61 62 65 64 70 83 69 71 66 77 76 73 74 68 64 71 64 73 72 75 54
7 6 5 5 5 5 4 5 5 6 7 8 12 16 35 37 38 38 35 34 38 45 48 64 58 28 35 64 60 60 60 62 66 67 76 66 68 63 50 62 50 55 54 55 60 60 63 62 63
7 6 6 6 6 7 8 7 8 6 8 9 11 19 29 35 38 38 36 35 36 43 45 56 57 39 44 28 62 60 58 68 57 69 67 34 34 44 44 52 51 53 52 53 55 56 59 60 55
6 6 6 7 9 9 8 8 10 9 8 8 12 17 24 31 34 36 36 36 37 39 43 56 70 62 49 58 58 70 63 60 58 58 57 37 35 40 40 35 46 55 55 54 55 58 60 60 63
8 9 9 10 11 10 10 11 10 10 10 9 9 12 17 23 27 30 32 34 35 34 36 56 72 63 54 51 56 60 55 45 53 53 55 58 58 42 39 40 55 59 57 57 56 58 57 56 59
9 9 12 10 10 11 11 14 9 10 10 10 10 10 11 18 22 26 31 33 33 37 36 62 78 67 54 52 54 53 54 55 55 53 51 54 59 57 55 56 49 56 59 54 59 57 57 58 56
11 12 12 14 10 11 11 13 10 11 12 12 11 11 11 12 20 22 27 30 34 34 35 50 62 59 49 46 50 57 57 54 49 45 45 46 50 52 54 49 48 47 52 52 62 61 60 64 60
14 11 9 9 12 9 9 10 11 12 12 12 11 10 12 12 15 23 25 27 32 34 36 38 55 46 48 51 54 50 48 46 46 45 48 52 52 58 46 49 47 52 56 56 56 58 56 46 46
10 9 9 12 12 12 11 12 12 12 12 13 13 14 14 24 34 36 40 37 36 38 39 38 57 44 47 52 47 42 41 42 46 48 51 48 48 49 48 52 53 52 50 50 49 45 44 48 51
11 12 12 12 12 12 13 12 13 14 15 15 16 18 26 29 32 36 40 43 43 46 53 54 54 50 42 41 45 45 45 44 46 49 47 50 53 54 59 49 46 50 49 48 51 55 52 47 44
14 15 22 19 15 13 13 15 16 15 16 18 20 21 24 27 32 37 45 50 51 49 46 46 48 47 45 45 47 47 45 44 44 44 48 53 55 60 51 48 47 48 50 49 34 42 46 54 52
19 20 20 18 18 19 12 20 18 17 19 20 22 23 23 24 26 32 43 52 52 49 48 50 50 47 38 38 37 40 48 53 57 55 63 54 58 51 51 48 48 48 51 49 55 59 53 50 61
24 21 20 20 20 18 16 20 22 17 21 23 24 26 27 30 33 38 44 51 56 55 53 52 49 50 46 47 52 61 66 64 53 50 55 54 53 52 47 46 48 46 46 46 59 65 62 69 75
20 22 21 21 23 42 19 22 37 23 23 24 26 29 31 31 36 39 44 50 56 57 55 53 44 48 48 55 62 59 49 48 55 57 56 55 54 46 46 50 49 56 62 64 67 73 78 78 81
19 23 42 52 53 49 24 22 32 24 23 24 26 29 35 37 37 37 40 45 50 52 53 54 55 53 49 48 51 53 56 58 58 58 59 57 46 60 55 59 60 68 72 74 73 72 73 84 81
24 25 52 54 59 40 20 20 31 24 25 26 27 29 32 37 40 41 42 46 48 50 51 54 58 58 54 54 58 58 59 60 61 61 59 53 63 63 61 64 66 70 70 70 72 74 75 78 77
28 34 22 41 50 54 23 28 26 23 24 24 26 28 29 33 36 38 40 44 46 49 48 51 54 61 59 59 60 59 58 62 68 62 59 61 65 68 70 72 71 77 76 76 77 81 84 83 82
24 21 37 44 60 51 28 26 43 30 26 23 23 24 26 31 35 41 40 41 44 48 52 56 58 63 67 62 58 57 62 65 64 62 61 64 70 72 72 87 85 95 99 100 96 97 92 85 91
28 30 28 24 41 52 52 31 21 25 24 25 26 27 29 32 35 39 42 46 50 54 56 58 61 66 68 68 70 67 65 62 63 61 64 72 76 61 69 72 67 76 91 75 74 72 68 71 72
24 27 26 60 48 63 66 48 22 24 29 29 30 34 35 40 44 46 51 53 54 57 59 66 69 74 75 72 76 69 64 61 64 68 75 69 73 83 82 79 79 74 73 70 72 69 72 74 88

GFSSGP_850_rhum_003.txt.gz
RH
2 2 13 16 24 24 22 21 26 30 27 26 36 43 51 50 55 80 76 67 71 75 79 77 77 78 76 77 82 81 80 80 83 85 82 75 75 76 75 64 52 45 38 34 28 23 22 23 27
1 14 15 17 26 26 30 27 30 26 20 28 34 38 47 57 58 74 79 72 70 75 75 75 74 74 76 77 75 72 77 81 76 69 65 64 62 58 49 43 40 37 30 14 9 9 14 26 39
8 17 16 22 24 25 37 27 25 20 21 20 33 38 42 50 49 66 75 71 66 69 65 65 66 70 71 68 67 71 70 68 63 58 52 51 47 42 40 42 41 38 16 14 15 15 17 24 35
13 17 13 17 18 19 30 27 22 24 22 30 32 50 44 46 56 68 76 81 73 71 52 54 49 48 51 46 50 58 56 54 50 46 44 42 39 38 41 41 43 30 14 18 19 18 18 19 18
19 17 19 19 21 33 23 20 21 27 24 31 42 52 46 46 54 62 70 70 48 40 28 25 28 29 32 38 42 44 47 41 37 36 37 35 35 38 37 40 37 22 15 19 19 17 15 16 16
17 13 20 21 20 21 19 17 19 26 21 32 48 50 44 44 47 53 57 55 24 18 21 22 24 24 26 30 34 36 36 34 32 31 31 33 34 30 28 34 24 13 16 18 18 18 19 16 15
18 21 20 25 22 23 17 12 12 22 18 30 41 49 45 43 42 43 50 51 24 23 22 22 21 23 22 26 31 28 26 25 21 23 33 31 38 41 37 24 24 28 25 28 29 28 29 22 20
13 17 15 19 22 18 12 10 10 14 14 20 32 43 53 44 38 38 40 44 50 35 30 33 31 47 40 12 14 14 13 12 14 21 29 52 46 38 46 53 52 55 54 50 48 47 37 34 37
15 14 17 14 20 13 9 9 6 14 14 24 22 37 45 42 39 36 42 42 56 52 47 54 43 42 50 34 16 11 26 30 33 39 49 57 53 48 50 64 61 60 51 59 51 47 39 35 39
10 16 12 8 9 10 8 7 6 11 13 26 37 41 44 42 39 35 35 39 51 50 60 60 49 31 51 51 53 54 55 52 56 47 45 56 53 61 69 68 56 59 54 57 50 53 46 44 42
8 11 7 6 6 6 6 6 7 12 15 14 43 43 43 43 40 38 34 38 42 44 57 47 39 41 55 53 55 62 65 58 66 69 62 59 76 76 70 54 45 43 49 50 54 56 54 52 54
8 7 6 5 6 5 6 5 5 7 9 11 28 40 42 38 42 37 35 34 40 47 54 53 34 22 50 52 61 58 68 62 69 67 66 42 53 50 36 42 42 49 51 53 54 55 53 56 58
8 8 6 5 6 8 7 6 7 7 8 10 14 37 38 37 37 37 34 32 36 45 52 48 40 24 21 60 65 66 65 68 62 65 61 33 30 41 39 36 35 37 49 53 54 54 53 59 58
7 6 6 6 7 9 9 8 9 9 8 10 14 32 34 35 37 36 36 35 34 41 47 53 53 55 46 49 51 51 59 64 58 60 59 42 40 39 41 36 34 39 55 58 59 57 50 58 58
7 10 9 9 11 11 10 13 13 9 8 8 11 24 28 33 37 38 37 36 35 41 51 55 67 75 65 55 48 52 64 43 54 53 51 52 57 57 55 51 49 49 48 50 46 44 53 57 54
9 13 17 13 13 12 12 18 13 10 10 9 10 12 13 29 32 35 34 35 35 37 47 54 49 56 53 57 48 54 54 50 55 57 55 58 64 57 53 55 42 41 44 44 47 42 53 56 64
14 19 19 16 13 16 15 16 13 11 11 11 11 10 10 13 25 31 32 33 33 33 36 46 59 54 62 56 53 57 57 52 50 47 47 50 50 48 53 50 44 43 43 50 56 57 58 59 54
20 19 20 21 13 10 11 14 15 12 12 13 13 18 25 28 36 36 35 36 35 33 39 53 56 56 50 49 58 54 50 49 49 46 46 46 45 41 40 44 51 53 51 50 50 50 49 46 44
14 15 21 18 13 13 14 19 19 20 18 23 42 42 40 42 43 43 42 39 38 39 54 58 49 48 48 51 52 52 48 44 44 42 39 35 41 41 45 46 51 48 49 48 47 46 44 48 43
13 19 26 17 14 13 14 19 22 22 25 28 35 36 38 42 46 47 46 50 50 51 53 56 52 44 48 51 48 46 43 39 34 34 40 46 52 53 55 56 52 49 47 49 50 46 44 42 43
23 27 26 23 19 16 16 23 25 23 24 25 27 30 31 36 41 43 49 48 45 45 46 47 48 48 46 45 40 36 35 41 44 47 52 58 48 46 56 54 50 48 47 47 48 47 43 42 42
32 27 25 23 25 29 18 36 27 28 31 30 30 32 35 43 44 44 40 43 48 49 47 46 44 41 37 36 39 42 50 53 59 63 55 50 48 50 55 52 46 43 46 48 48 42 40 49 57
30 23 25 24 28 26 26 38 28 28 36 35 30 29 33 37 41 45 44 46 47 45 41 38 41 44 46 45 46 47 58 48 45 50 54 55 55 54 52 44 36 34 38 36 40 48 56 66 72
22 28 31 29 35 57 34 41 53 48 36 36 33 33 34 34 37 40 45 49 48 45 44 47 50 50 48 47 46 47 48 50 54 53 54 55 55 50 38 39 47 57 59 61 65 64 67 70 66
28 38 70 64 78 66 40 40 61 37 31 34 40 38 37 40 40 44 48 48 48 49 50 52 53 51 49 49 50 50 52 53 56 57 56 53 44 42 52 51 61 59 68 71 69 68 68 70 75
34 35 68 62 82 57 26 45 45 32 28 28 29 30 34 38 40 41 41 45 46 46 49 50 51 52 55 55 52 53 53 56 59 67 80 53 56 64 64 62 67 68 73 85 83 79 79 85 88
34 43 24 57 64 68 45 38 32 30 30 27 27 27 37 39 40 40 45 55 53 50 52 55 56 58 60 57 55 54 55 62 83 81 62 61 71 65 68 76 69 87 89 77 88 91 72 67 72
29 23 53 63 61 61 45 49 61 44 41 30 29 32 33 38 42 46 50 50 51 52 53 56 59 60 64 65 65 67 72 74 82 66 63 68 68 76 58 43 56 60 61 66 66 64 58 55 56
37 39 36 38 62 74 81 52 39 41 39 40 35 40 43 44 45 47 50 53 54 54 55 57 58 61 65 66 63 57 65 65 61 61 64 65 66 59 46 61 65 63 55 51 49 52 56 59 68
26 34 42 76 63 83 86 62 40 41 34 32 40 41 43 44 47 52 56 57 58 58 56 54 56 59 54 52 52 65 72 66 62 56 66 63 47 56 60 62 56 47 46 47 51 55 57 63 77

GFSSGP_850_rhum_006.txt.gz
RH
6 1 9 17 22 26 26 22 29 39 42 48 48 54 62 60 57 79 82 78 70 71 76 78 75 74 72 72 78 77 76 81 82 76 62 55 50 42 38 36 32 31 29 18 10 9 10 18 31
2 13 13 17 27 29 31 28 43 43 38 45 48 54 62 80 87 90 88 79 72 69 80 78 77 76 74 74 72 70 73 68 60 52 44 41 37 35 33 32 30 32 22 13 14 14 15 20 28
8 16 15 22 27 28 35 27 27 33 31 36 43 47 51 77 79 86 74 70 79 79 80 75 75 74 70 63 57 60 55 52 46 39 37 34 32 30 32 29 31 32 16 15 16 16 17 17 17
15 16 15 18 21 18 28 29 26 36 39 42 45 48 55 66 69 72 78 68 62 71 74 66 67 60 51 47 48 49 42 39 37 33 32 31 29 30 28 28 31 24 15 15 17 15 13 13 14
20 17 20 20 19 27 26 24 24 27 45 46 43 50 55 68 65 72 75 76 59 61 61 54 42 37 41 48 51 43 40 35 31 28 30 28 28 28 20 25 24 15 16 17 17 18 18 18 16
17 14 20 23 29 21 19 24 25 45 48 47 48 50 56 73 68 76 69 52 40 32 33 33 34 34 34 36 36 34 33 30 27 22 24 27 21 19 18 17 18 24 26 30 35 35 32 24 20
18 21 20 27 35 24 15 18 24 35 45 49 44 51 53 69 69 67 50 23 20 24 26 26 26 28 25 28 28 25 23 19 15 17 19 19 34 32 34 41 43 47 48 46 47 42 38 35 34
15 18 16 19 32 18 12 14 21 30 37 45 38 54 48 54 55 54 51 23 24 24 22 24 27 21 11 14 14 14 12 10 12 17 35 45 40 45 46 43 45 48 46 50 49 46 38 39 41
15 19 19 14 18 16 9 11 14 25 36 34 32 42 42 44 46 46 42 44 36 40 42 38 32 36 27 14 11 17 27 26 26 33 40 38 46 39 42 41 42 44 44 45 49 53 50 47 42
16 17 15 12 13 12 9 8 12 20 33 47 47 45 40 38 39 38 43 55 50 51 51 44 32 32 37 47 45 45 44 43 35 43 36 34 39 42 45 35 34 36 42 48 52 53 52 53 53
12 12 8 8 10 8 7 7 11 17 32 44 50 43 40 37 36 38 44 54 54 54 53 53 30 26 42 46 53 55 60 57 60 55 39 44 45 38 34 34 33 36 42 47 50 48 48 50 53
8 8 6 6 6 7 8 7 9 12 16 27 34 42 42 39 35 34 40 46 54 56 51 53 33 32 46 48 59 58 65 62 68 62 57 41 46 39 34 36 38 38 41 44 44 42 43 52 47
10 8 6 7 8 7 6 6 6 10 13 27 37 42 39 37 37 36 34 37 48 49 48 54 34 49 52 57 63 62 65 66 66 65 58 40 33 37 46 51 50 53 55 53 53 60 59 54 49
8 7 6 6 9 9 8 9 9 10 17 36 39 40 37 35 34 36 35 35 42 47 52 57 40 38 42 61 65 67 68 67 61 51 53 53 52 55 58 56 50 48 47 45 47 50 51 50 47
7 9 9 8 10 10 10 13 12 9 14 38 40 39 38 35 35 36 37 34 36 44 48 53 48 38 44 53 55 61 64 60 56 54 54 55 58 64 64 62 57 47 36 38 38 37 39 46 54
11 15 15 13 14 12 11 16 13 9 11 26 36 40 37 36 36 37 37 37 34 42 49 48 53 43 49 51 52 59 56 50 52 56 57 57 62 65 56 52 47 45 41 40 45 46 47 52 53
20 17 18 16 15 14 14 17 15 9 8 10 15 28 33 41 42 40 39 38 36 40 46 55 53 55 54 49 57 55 58 54 56 52 51 59 57 52 44 41 42 45 45 45 49 49 49 50 49
19 20 21 19 16 17 17 18 18 15 20 34 34 40 45 46 45 44 40 38 37 43 58 56 59 58 60 60 59 60 58 61 51 49 45 41 42 41 42 44 47 51 51 50 50 50 49 48 46
16 19 24 19 15 14 23 31 30 42 46 48 53 56 52 51 49 44 42 42 41 60 66 64 59 58 60 59 60 60 56 47 40 37 37 40 42 43 47 53 58 55 52 50 48 48 51 46 38
21 25 26 21 17 15 26 31 35 40 44 46 51 52 53 52 49 51 54 55 59 63 63 61 55 60 61 59 63 51 44 38 38 42 44 44 46 48 40 54 56 53 51 48 48 47 47 47 41
34 30 25 23 20 20 26 32 38 34 36 40 46 47 45 47 52 51 51 51 51 57 60 54 51 51 54 50 39 38 37 40 44 45 44 45 41 45 51 56 54 49 42 39 42 44 42 40 38
36 27 26 24 27 23 21 44 33 40 42 44 50 48 47 44 43 44 44 45 47 46 42 41 40 39 39 39 36 36 40 42 44 43 43 45 47 54 57 54 49 38 36 36 35 36 42 42 48
31 24 25 25 31 31 28 44 38 38 44 46 49 49 42 39 36 40 40 40 42 43 40 38 38 36 40 43 39 42 42 45 47 48 49 56 59 57 52 47 43 29 28 37 52 57 65 68 70
22 28 40 39 44 58 38 49 52 49 42 44 46 46 40 36 37 36 38 44 45 44 45 46 46 49 53 51 49 50 50 50 53 58 60 58 61 68 64 56 38 52 56 56 65 70 72 75 84
31 48 69 63 73 65 43 59 54 40 37 44 48 43 40 40 39 41 43 45 46 47 48 50 52 54 54 55 54 53 52 56 59 60 69 76 76 69 64 57 61 68 68 52 77 81 84 74 82
32 43 67 64 72 54 41 56 48 39 40 40 38 39 40 41 43 46 50 52 54 55 53 55 56 56 58 60 58 56 58 59 63 76 89 88 87 64 66 72 72 56 45 67 64 56 56 60 55
34 38 34 59 68 64 56 42 34 34 35 33 32 34 43 46 49 52 55 54 54 53 54 58 60 61 63 61 58 63 58 57 65 62 57 65 64 65 73 71 39 28 36 54 54 49 46 45 48
24 27 52 65 56 64 54 52 56 47 42 40 49 45 47 50 52 53 54 54 54 55 56 55 52 53 56 54 50 50 50 54 56 61 62 61 63 72 73 50 33 37 45 50 47 46 44 50 53
40 41 45 50 67 72 79 58 44 49 47 53 51 48 48 50 54 57 57 58 58 56 55 53 53 49 41 39 40 38 44 56 67 69 68 80 82 92 66 46 52 40 40 44 45 46 46 50 54
28 37 49 70 58 86 85 61 37 45 45 48 49 48 52 58 62 62 59 57 58 54 47 47 47 43 37 33 31 48 70 73 69 71 74 85 88 68 64 64 56 41 42 40 42 45 49 51 56

GFSSGP_850_rhum_009.txt.gz
RH
8 2 8 13 23 28 28 22 42 47 56 58 55 54 76 86 73 79 92 83 77 70 75 79 79 79 78 75 78 81 74 76 73 63 52 42 36 33 32 31 26 27 17 12 13 13 15 22 30
2 16 16 18 28 27 34 38 52 50 50 45 51 61 73 87 96 89 98 89 77 71 75 77 77 75 74 78 78 73 73 65 52 45 38 32 30 29 29 23 26 24 14 15 14 15 16 16 15
7 17 16 23 30 30 34 41 46 44 43 39 46 48 63 91 80 87 79 86 84 79 80 78 74 76 76 75 68 62 54 52 44 38 30 26 26 28 23 25 25 17 15 16 16 14 13 14 14
16 18 16 20 23 21 26 29 37 39 40 37 51 53 66 78 81 76 83 89 85 82 78 76 78 76 71 64 58 47 42 38 35 31 21 24 27 25 20 25 18 15 16 17 17 18 18 17 15
18 18 20 20 18 22 23 28 35 40 46 47 46 53 69 76 75 72 74 86 78 80 78 73 72 60 52 49 46 39 36 32 27 17 16 24 20 16 17 17 16 21 26 34 37 36 32 25 19
18 17 22 22 28 28 21 27 41 48 48 51 57 62 75 76 73 76 75 73 72 69 68 56 47 42 43 40 36 34 31 26 18 14 20 21 28 26 28 32 40 40 41 42 37 32 32 31 33
19 21 20 22 38 25 24 26 46 47 48 48 54 59 87 78 76 76 81 66 60 44 34 34 33 30 30 32 31 26 19 11 10 14 23 37 33 37 39 36 38 35 42 40 36 33 32 32 32
16 20 18 29 36 41 19 17 43 45 48 45 48 60 92 80 74 54 52 34 30 28 28 24 20 16 17 22 16 12 10 11 16 33 42 35 38 36 30 32 34 36 40 43 44 40 38 38 38
16 24 22 16 25 30 24 14 30 40 44 41 40 51 68 79 51 34 28 29 28 24 23 25 25 12 9 12 13 20 22 26 28 33 38 41 34 30 28 29 31 35 39 43 44 43 44 46 42
20 26 20 13 18 19 11 20 30 39 44 52 46 54 71 59 52 47 28 26 27 28 33 32 27 26 27 21 30 36 38 39 34 36 35 33 31 34 30 32 36 39 44 45 45 47 51 52 51
16 15 9 8 14 12 10 13 15 41 46 45 46 53 59 54 48 44 31 24 29 37 44 41 31 37 43 45 43 48 45 47 46 37 25 26 30 30 33 34 39 42 44 45 45 49 58 58 58
14 10 8 8 11 8 9 9 20 17 32 33 33 41 50 49 42 38 37 35 46 44 42 50 33 42 42 48 55 54 52 53 45 45 29 25 29 29 35 38 43 46 52 51 47 47 47 44 47
10 8 8 7 7 7 7 8 10 12 19 38 37 41 40 39 38 32 30 33 45 47 50 51 36 33 39 45 56 56 58 59 64 59 42 36 39 47 44 51 50 49 43 37 36 36 38 38 38
8 8 8 9 9 6 7 10 10 12 36 43 41 40 39 37 35 34 38 38 49 48 47 52 45 32 43 45 56 61 65 64 65 56 53 58 54 58 63 65 60 53 48 43 39 38 38 42 45
8 10 9 8 10 10 10 13 12 14 42 44 42 40 40 38 35 34 36 39 45 47 48 52 46 40 42 56 62 66 68 64 57 49 57 60 59 62 66 65 61 54 46 44 45 45 46 48 49
13 15 15 12 13 14 11 14 13 14 42 47 46 49 50 44 42 41 38 37 38 43 52 58 51 63 66 67 68 66 69 60 54 56 64 61 63 65 62 56 45 41 43 47 48 48 49 50 50
20 18 16 16 15 15 14 18 16 14 41 48 51 51 50 50 49 47 44 42 38 41 58 65 68 62 72 65 66 71 59 57 57 60 62 62 57 54 46 42 43 45 49 51 51 51 52 51 50
16 18 18 18 16 18 16 25 38 27 21 42 45 41 42 43 47 45 45 44 40 40 58 58 72 84 80 64 68 65 59 60 64 53 47 44 41 38 41 47 50 41 52 55 54 51 50 50 50
16 20 21 22 16 33 40 49 60 55 62 64 62 63 63 58 56 47 46 43 39 47 56 59 78 76 68 74 68 64 68 52 46 40 42 43 46 52 49 42 40 47 54 53 51 48 46 44 43
23 23 26 23 24 35 46 50 51 50 60 64 62 63 66 66 61 58 53 47 58 62 66 63 65 76 67 65 68 65 56 43 43 47 51 51 46 44 43 43 48 53 53 48 40 37 34 31 29
34 28 25 26 31 34 39 47 43 40 51 60 61 55 55 53 54 55 56 61 63 62 56 52 56 61 62 64 53 40 41 43 45 46 43 42 44 46 51 55 55 51 48 42 38 34 32 34 35
34 28 25 28 36 44 32 64 41 46 56 60 62 57 55 54 50 49 49 50 48 43 41 38 38 38 39 40 41 43 44 45 44 45 47 49 54 58 58 54 60 62 46 37 34 34 28 43 56
31 26 26 26 34 34 36 54 49 48 60 61 61 57 53 41 38 43 43 41 42 42 44 46 47 50 53 53 52 51 52 51 51 52 57 62 62 63 65 71 73 59 46 47 54 63 35 63 80
24 34 44 50 47 58 39 52 56 56 53 56 56 55 47 44 49 48 46 46 46 49 51 52 53 54 55 55 55 56 56 58 57 60 63 65 78 79 72 68 58 58 52 58 66 50 49 65 70
35 45 65 60 72 67 47 55 59 44 44 49 53 54 48 48 43 44 47 50 50 52 52 53 54 56 56 57 59 60 59 60 60 59 58 57 52 57 56 58 70 67 68 41 39 50 48 49 51
36 44 68 58 75 53 46 58 51 43 39 41 44 44 47 49 49 48 50 53 56 54 54 55 55 58 62 63 62 63 61 51 49 54 61 64 56 62 68 80 70 57 36 27 29 33 39 42 39
34 43 39 69 72 68 62 45 39 44 51 44 44 47 48 54 57 52 53 55 55 55 55 56 54 52 55 52 49 46 40 45 62 73 72 65 65 69 77 72 89 87 56 34 31 38 46 46 49
29 35 51 67 56 65 60 56 63 48 50 44 50 56 54 57 58 57 56 56 55 54 51 44 44 47 46 43 39 34 41 63 62 72 70 72 70 75 85 98 94 68 74 37 36 43 45 44 48
41 41 51 58 70 71 81 69 47 50 49 60 64 60 57 56 56 57 57 57 55 52 46 46 46 43 40 36 32 30 30 29 29 29 41 73 77 83 90 88 78 82 51 39 39 38 44 49 53
31 40 47 65 58 87 84 62 44 54 52 56 61 59 60 60 60 60 59 56 51 46 44 45 44 42 40 38 33 32 29 26 19 27 57 82 85 95 89 79 84 48 43 41 39 44 49 54 60

GFSSGP_850_rhum_015.txt.gz
RH
19 7 5 20 16 19 21 20 36 53 64 68 70 67 70 75 65 74 98 86 83 80 91 94 85 79 77 75 74 74 73 69 51 34 31 29 29 23 24 17 14 14 13 12 12 13 14 14 14
10 4 19 21 17 18 24 30 52 50 61 58 58 57 66 76 74 95 99 92 84 79 89 96 88 82 78 75 75 71 65 46 33 28 26 28 24 25 21 15 14 15 15 16 15 14 14 13 13
4 14 20 20 24 18 29 47 48 48 52 50 68 66 73 73 65 86 80 81 87 86 91 97 91 84 78 77 73 61 43 34 28 20 24 27 21 21 16 15 16 16 20 24 25 23 22 20 19
8 19 16 19 20 20 28 45 50 49 44 42 48 64 63 58 68 78 88 94 89 90 95 93 88 81 79 76 62 39 34 28 18 21 27 18 17 16 15 20 31 34 32 26 24 23 24 24 24
18 18 18 19 18 18 18 43 52 44 45 36 44 57 75 74 78 82 84 89 90 89 90 89 84 82 79 65 40 34 34 27 18 25 21 17 17 20 36 38 33 29 23 23 22 20 21 22 23
22 18 19 18 31 27 32 42 43 48 41 44 57 62 86 85 91 87 85 84 88 84 89 88 86 80 59 42 40 39 33 20 20 21 21 22 30 38 34 34 30 28 29 28 28 28 27 27 28
20 18 18 27 35 32 30 45 44 42 46 51 59 79 98 100 81 81 83 91 92 89 87 85 75 56 50 47 42 36 28 17 22 29 29 31 31 30 31 31 31 31 31 31 33 34 32 31 28
20 18 27 36 35 48 33 36 43 50 50 56 57 78 97 95 85 90 94 96 92 89 88 64 54 55 50 45 38 28 21 22 26 34 33 31 29 28 28 29 31 32 32 35 35 37 38 38 37
19 19 31 35 35 48 42 29 36 44 51 51 52 76 74 80 88 98 99 97 87 80 51 44 37 39 37 33 26 22 20 24 40 38 37 36 31 26 28 30 32 34 35 35 37 39 42 40 39
20 22 20 22 31 36 35 28 36 48 50 53 78 74 73 75 80 91 97 92 57 37 32 27 25 25 30 30 22 20 24 38 43 39 38 36 33 30 31 34 38 41 40 39 39 39 40 39 38
23 20 17 14 30 28 26 27 36 47 47 48 76 83 77 96 92 76 62 26 22 29 25 22 15 20 21 20 25 33 38 47 43 43 42 40 39 36 36 38 41 42 44 42 41 39 40 41 42
18 18 11 11 26 29 27 22 40 42 37 38 47 50 61 79 50 22 19 21 23 21 27 30 26 22 22 31 45 51 54 51 53 47 48 48 45 39 42 44 46 47 48 47 47 42 43 44 43
19 16 11 10 15 22 18 22 33 34 28 34 48 56 51 56 50 32 24 24 20 29 35 40 40 46 42 52 63 67 67 70 74 71 55 47 50 51 54 57 57 59 58 55 52 47 46 42 42
14 10 10 11 13 12 14 12 21 23 40 38 43 50 58 63 50 40 34 25 23 39 50 53 50 54 58 63 68 68 67 74 72 77 75 71 65 58 62 66 67 67 63 58 52 45 40 40 45
9 10 11 12 10 10 11 13 18 45 50 51 81 74 67 62 53 49 38 28 31 46 57 63 64 58 68 73 73 68 65 60 63 72 79 68 63 66 65 71 70 66 54 49 47 39 39 45 48
12 16 13 11 14 15 10 13 34 58 54 58 70 75 68 67 67 60 54 49 50 53 62 59 60 67 69 72 70 62 79 64 63 69 72 65 71 69 69 64 56 49 50 46 42 44 46 50 52
19 16 17 15 23 15 16 25 48 44 59 60 59 60 61 62 58 56 50 50 49 56 62 64 60 63 70 66 73 77 86 82 78 73 68 65 59 54 49 46 48 50 47 44 47 49 50 50 48
17 17 17 17 23 32 38 54 57 63 61 64 60 59 56 52 51 49 47 46 47 46 51 68 59 63 63 72 78 84 82 67 69 66 59 48 45 46 48 45 44 43 46 50 51 50 48 47 49
16 17 18 24 35 49 60 58 59 66 66 66 67 60 60 57 54 53 53 55 57 59 66 72 73 73 69 76 78 76 73 64 45 43 43 42 46 50 45 48 49 50 52 54 55 58 59 58 48
24 26 33 36 41 46 50 58 58 60 67 69 69 68 62 59 63 62 61 67 75 74 72 77 69 69 70 75 70 45 39 40 42 44 46 47 48 48 50 53 56 59 60 62 61 62 50 44 40
33 29 31 36 44 43 44 50 59 60 67 73 76 75 74 71 80 90 82 68 56 55 57 61 58 64 67 47 41 45 47 48 49 50 52 52 52 56 60 61 57 45 48 56 65 56 56 72 61
35 30 38 45 37 38 37 30 55 62 65 66 70 75 79 82 79 67 58 53 48 46 44 45 46 46 47 49 50 52 52 55 55 56 58 58 62 62 55 51 43 39 57 56 65 63 59 50 57
35 33 33 31 32 34 40 37 48 61 66 63 63 69 71 70 62 53 50 43 38 41 44 45 49 51 53 54 55 56 58 61 64 63 60 58 67 64 54 43 33 42 62 67 69 58 58 46 39
39 37 40 44 40 41 38 36 43 63 57 57 60 66 65 57 49 44 42 41 44 48 49 50 53 54 57 58 59 61 61 59 56 52 50 47 44 33 26 32 49 57 62 76 63 64 71 68 48
34 38 48 51 57 47 47 47 36 41 47 50 55 59 61 52 47 47 46 47 49 50 52 53 55 57 60 60 53 43 36 32 33 34 30 25 22 20 25 47 68 73 73 73 73 89 59 33 33
40 38 55 57 60 49 46 53 37 41 42 49 51 57 56 53 53 54 52 52 52 54 55 58 60 57 46 40 33 28 30 28 28 27 22 16 16 16 14 31 71 81 82 74 96 77 43 36 41
39 37 42 60 63 56 46 43 38 49 44 53 57 60 62 57 56 56 57 58 59 60 59 55 48 44 39 38 34 34 29 27 27 24 19 13 9 11 15 44 80 88 82 79 82 59 44 37 39
33 38 43 48 52 50 43 52 41 55 48 50 56 58 63 58 61 62 61 62 60 57 51 61 53 42 40 35 34 30 27 29 27 22 21 12 11 14 34 81 90 87 92 78 69 46 42 43 44
40 43 52 47 55 43 48 35 45 45 45 48 50 57 56 60 63 65 63 59 56 52 55 54 52 50 55 37 32 30 31 34 34 32 20 16 18 22 54 84 81 83 87 82 95 53 42 45 48
36 41 42 48 46 66 64 40 38 47 46 52 53 55 56 61 64 65 59 58 54 50 53 56 55 57 36 36 31 32 35 38 39 32 23 28 32 34 58 90 87 85 88 95 79 47 55 46 48

GFSSGP_850_rhum_018.txt.gz
RH
17 10 3 20 16 13 16 16 25 46 51 52 56 51 55 56 60 68 98 98 98 98 97 86 78 71 69 68 68 71 71 65 54 40 32 29 24 22 17 13 13 13 13 12 12 12 13 13 12
16 4 15 16 16 17 15 14 27 42 46 48 46 51 53 55 82 99 97 98 97 91 99 91 83 77 74 72 73 72 71 55 42 32 28 25 23 19 14 15 15 15 15 16 16 17 18 18 19
9 9 14 11 12 15 16 27 35 38 42 36 49 63 70 67 74 91 87 93 94 91 100 95 83 80 77 76 75 72 56 40 29 26 28 21 22 16 14 15 19 28 25 24 24 24 23 22 21
12 16 14 12 13 12 21 31 33 34 38 40 46 68 68 49 56 75 84 91 86 85 95 86 86 86 81 79 73 58 42 31 21 26 24 21 18 14 18 31 28 21 20 20 19 20 21 22 21
15 13 12 12 12 11 20 33 36 32 29 34 37 50 58 80 53 73 68 88 97 75 94 91 92 89 83 74 61 44 36 24 24 27 18 18 15 26 34 32 24 24 25 23 23 24 25 26 26
12 13 12 14 18 19 14 31 36 30 29 33 32 44 69 89 86 84 69 88 92 96 92 92 91 85 77 67 48 42 34 22 25 23 20 19 32 35 33 28 27 27 27 27 27 28 29 30 31
12 10 11 17 25 29 25 33 33 32 26 36 43 46 94 96 94 96 97 96 90 92 86 88 88 82 72 57 53 43 33 22 27 26 24 34 37 32 32 29 30 30 31 33 34 35 37 37 36
15 10 14 19 28 38 35 41 34 31 34 48 47 44 85 98 94 95 98 97 97 86 87 88 91 79 66 57 52 40 30 26 32 34 33 38 37 35 35 36 34 34 37 40 40 40 39 38 38
18 11 15 24 27 35 26 26 37 34 41 51 54 58 76 98 95 97 96 94 88 92 90 94 96 99 98 96 51 40 30 31 43 41 46 44 77 65 47 34 35 38 40 41 42 41 40 40 57
15 12 13 19 22 27 28 24 24 38 43 48 65 78 91 99 98 100 98 99 96 92 78 73 65 64 86 92 41 36 33 61 81 78 54 81 52 63 57 37 38 40 43 45 42 41 44 60 57
15 13 12 22 24 19 20 23 22 29 37 39 57 85 100 100 100 100 100 98 98 98 85 62 53 48 75 78 76 70 70 71 62 53 60 61 50 55 74 71 68 50 45 67 63 62 62 46 47
16 13 11 18 25 18 17 21 23 28 29 37 56 81 90 97 98 90 88 76 75 86 88 31 29 37 37 62 64 52 75 66 81 59 55 58 82 69 66 70 73 54 58 53 55 64 47 45 42
15 13 12 11 20 21 20 18 23 27 33 47 66 75 79 83 75 68 64 63 67 71 81 35 26 25 26 39 51 62 67 77 75 61 52 54 57 50 60 63 64 60 61 61 62 65 61 59 58
14 11 9 10 18 20 17 19 23 27 43 54 65 66 71 74 68 60 60 60 64 66 78 41 42 44 43 74 68 72 73 73 77 79 78 71 66 66 62 66 69 69 66 60 59 52 50 56 56
11 10 9 10 14 16 16 15 17 38 46 49 51 54 61 62 63 56 51 50 53 64 82 57 53 56 59 65 76 57 47 64 79 72 65 75 77 73 69 66 77 64 58 49 53 50 60 58 56
10 10 10 11 12 12 13 15 22 43 44 43 48 57 63 60 58 57 59 51 52 64 84 61 64 58 65 67 68 66 64 82 82 73 74 70 70 69 70 70 57 51 49 47 59 63 56 57 58
11 9 10 14 15 11 9 12 27 44 41 42 48 50 54 57 61 67 59 56 58 69 83 60 66 70 73 71 70 82 74 83 76 66 65 65 60 56 52 51 50 44 46 52 57 61 63 57 58
11 13 9 11 18 9 12 23 25 42 40 40 42 46 50 54 59 68 56 53 70 80 84 69 74 71 84 78 85 82 78 68 69 66 59 51 48 49 52 51 46 49 63 65 69 69 68 69 70
10 11 12 15 26 22 22 23 27 36 42 44 42 47 50 52 67 66 51 51 52 53 57 67 71 84 74 83 76 70 74 73 59 50 48 49 50 51 50 53 59 64 72 72 70 70 66 64 66
13 12 18 24 28 25 25 29 32 33 39 43 44 46 49 58 68 85 92 72 88 91 97 96 95 77 84 81 74 72 74 56 42 44 46 50 54 53 57 60 71 76 73 73 80 70 61 56 69
19 18 23 20 27 26 24 28 33 39 42 48 52 48 52 57 69 82 89 93 99 96 96 93 84 80 80 63 48 44 45 48 57 60 60 59 58 63 66 70 64 60 63 61 74 81 84 66 66
22 21 22 27 23 21 25 18 33 38 41 43 51 53 57 66 74 79 80 81 86 87 78 74 76 71 53 49 57 58 61 64 62 64 68 71 63 60 62 57 39 46 60 72 77 80 75 74 62
25 24 23 22 21 24 25 22 30 40 42 44 50 58 64 70 66 62 58 62 65 68 59 57 50 45 49 52 54 63 61 65 68 71 72 75 74 75 75 72 68 71 74 81 74 84 78 78 77
26 26 25 24 24 29 21 24 17 34 32 39 48 55 61 61 54 51 53 56 60 65 52 58 57 58 59 57 58 59 51 56 56 61 54 46 43 43 47 61 83 81 81 95 89 81 90 89 74
26 23 28 34 35 33 32 29 18 21 31 33 43 48 56 54 48 49 53 53 60 67 70 66 65 64 62 57 41 33 32 40 43 40 37 38 34 36 39 50 66 81 87 95 84 91 94 75 67
25 24 28 33 36 25 34 27 20 27 28 35 42 42 48 49 49 51 52 58 65 70 68 68 67 62 48 43 42 33 28 23 34 37 32 40 43 44 52 61 72 84 96 100 96 95 82 77 72
29 28 29 41 48 42 22 24 24 31 31 35 39 40 44 46 50 54 60 62 67 68 72 66 56 50 43 43 57 42 27 30 31 34 47 44 46 48 58 80 86 93 100 99 98 86 78 76 73
26 27 34 33 45 37 21 24 18 34 34 34 36 40 43 42 49 57 61 67 66 68 65 59 48 48 74 70 48 32 32 34 36 40 46 47 48 50 59 73 83 96 95 97 94 75 88 77 69
31 30 30 28 37 26 23 14 25 28 30 35 36 39 40 45 52 60 64 68 67 68 60 52 54 68 61 45 35 32 34 36 40 47 53 52 55 59 62 69 78 84 94 86 90 91 98 78 64
28 27 24 27 33 44 50 21 25 32 32 31 35 38 40 49 55 61 63 66 67 63 53 55 63 62 48 42 33 33 34 36 53 59 58 60 65 68 74 82 82 80 82 85 96 99 80 64 64

GFSSGP_850_rhum_021.txt.gz
RH
14 12 17 10 15 14 14 12 10 34 42 49 49 38 50 52 59 65 71 81 86 89 84 61 63 64 64 66 67 67 69 67 54 36 28 25 18 17 11 12 12 12 12 13 14 15 16 17 18
26 14 8 12 15 14 12 9 18 36 39 41 44 46 41 47 66 85 87 91 93 95 74 66 66 67 68 69 71 70 69 56 36 27 25 19 20 14 13 14 14 17 20 21 22 22 22 20 20
19 11 11 10 13 14 12 15 32 38 37 36 41 42 45 45 66 86 91 99 96 96 94 78 74 72 73 76 74 72 63 40 30 26 25 23 18 15 14 20 27 24 22 22 22 20 20 20 19
11 9 12 14 14 10 11 25 32 27 32 32 34 35 54 50 67 81 96 92 91 93 92 85 80 78 79 80 75 72 50 37 27 29 23 23 16 15 27 26 20 19 20 21 22 25 25 27 28
11 10 10 12 12 10 18 34 35 40 30 35 30 35 38 63 67 90 94 93 92 99 89 89 85 84 84 81 76 61 46 29 28 30 24 19 16 30 30 22 24 25 26 26 26 28 31 32 32
8 9 12 13 11 11 10 30 27 28 28 27 31 36 44 60 70 83 90 77 85 82 95 90 91 89 85 76 62 49 42 26 32 27 24 17 36 35 28 26 27 27 28 29 32 34 34 33 33
9 8 11 10 18 18 13 36 57 25 24 26 27 32 55 60 71 92 79 80 64 70 98 95 93 90 80 70 56 50 38 26 32 25 22 40 37 33 30 31 30 31 33 35 36 37 36 35 37
8 8 9 10 25 29 20 28 31 36 62 37 35 43 41 61 93 95 73 87 96 97 92 88 85 90 72 62 58 51 35 29 30 27 33 44 36 35 39 39 37 36 38 40 41 40 39 42 55
12 11 10 13 30 35 24 24 27 28 33 35 42 44 58 79 96 99 98 92 94 98 79 92 92 95 93 78 58 43 29 31 41 34 43 46 74 74 63 50 40 40 41 42 40 40 41 57 56
9 9 9 17 29 47 20 21 22 27 26 30 45 54 76 85 86 89 94 98 95 91 93 92 84 86 81 77 55 78 53 60 80 78 61 77 80 81 77 56 40 42 43 46 48 54 61 61 58
10 12 10 13 27 24 26 24 20 28 31 29 39 52 67 81 81 83 83 84 90 96 91 86 78 73 79 79 69 63 68 83 90 95 90 88 85 84 75 69 66 72 67 67 64 65 62 71 67
12 10 10 14 20 16 16 18 20 47 66 28 39 58 73 66 76 73 76 62 63 81 96 100 96 76 79 71 62 69 71 81 78 84 94 94 81 85 79 70 70 70 68 69 66 64 70 66 62
12 11 12 17 17 14 16 16 30 36 25 31 46 62 61 62 55 53 49 49 55 62 81 91 91 88 88 74 83 86 84 82 75 78 68 68 86 64 53 67 80 76 72 69 68 65 64 57 56
11 11 10 12 15 23 15 14 26 22 26 38 49 49 45 49 43 44 43 44 49 56 73 80 80 83 78 89 94 96 73 70 71 76 74 74 66 50 62 64 81 77 80 74 70 66 62 60 57
11 11 9 10 15 16 14 12 16 25 27 34 37 37 40 40 39 39 40 44 46 53 69 78 82 84 90 81 64 49 51 51 62 72 82 80 76 75 70 79 75 82 73 70 63 64 58 53 52
11 11 13 10 13 15 15 15 17 25 25 28 30 34 39 42 40 37 38 39 44 52 72 82 84 94 71 64 59 57 60 63 69 74 76 69 74 76 75 79 84 72 64 67 66 60 60 60 56
12 13 13 12 11 14 14 14 15 24 22 26 30 37 39 41 40 44 44 39 42 54 72 94 96 97 63 70 65 71 68 66 78 70 71 67 67 64 76 75 76 53 66 66 67 66 68 65 63
13 11 9 11 13 12 9 13 13 21 22 26 28 34 38 40 42 49 51 44 44 53 73 98 100 98 80 72 74 78 82 89 82 79 76 75 70 51 67 71 56 52 67 70 77 82 76 70 58
10 10 8 9 11 9 9 13 15 18 21 24 25 29 34 39 44 57 61 62 60 71 81 100 86 88 84 99 97 94 83 80 75 70 72 60 57 56 54 66 69 74 75 78 77 77 75 55 46
9 10 12 12 12 15 11 13 14 17 19 22 24 26 30 36 48 59 67 70 71 78 85 98 99 97 98 85 75 72 70 64 62 68 55 60 60 70 66 75 77 76 76 71 66 66 68 59 52
12 11 16 14 15 14 13 16 21 21 22 28 28 28 30 35 48 61 69 73 79 86 94 97 96 90 72 70 75 72 69 64 62 65 63 70 77 76 76 76 77 75 67 58 60 67 75 62 59
17 16 14 16 18 18 14 18 18 23 26 27 32 32 34 38 46 60 68 76 83 86 83 77 75 72 79 63 54 55 52 55 67 63 69 71 75 78 74 69 71 71 67 68 66 57 74 72 62
29 18 18 16 17 19 18 16 44 25 25 27 28 33 36 42 52 58 66 68 70 74 71 70 71 62 62 65 66 62 64 66 66 66 64 57 50 45 44 43 49 69 75 71 74 77 76 72 74
18 20 19 17 14 24 14 18 23 24 20 24 30 37 43 51 55 50 52 58 65 67 69 66 59 62 67 69 73 72 67 59 54 50 41 37 35 35 36 41 48 55 67 75 73 76 81 83 85
17 19 27 27 29 28 18 19 15 10 18 18 31 40 49 50 46 42 46 48 56 63 66 63 61 67 70 66 61 59 58 46 42 43 36 38 37 38 40 51 55 60 62 70 75 88 92 94 76
19 17 26 27 27 23 21 20 13 18 16 20 30 38 46 46 40 39 42 45 53 62 64 59 62 63 61 59 53 50 68 65 49 43 44 41 42 42 46 52 64 73 71 75 80 91 91 86 88
18 24 19 27 31 33 17 11 14 22 22 23 30 36 43 41 38 39 43 48 55 62 63 63 61 55 52 52 63 69 61 44 49 51 51 46 45 43 45 56 62 68 73 81 91 98 97 86 79
22 18 26 22 32 32 14 14 11 23 22 24 28 33 38 38 38 40 44 52 58 61 66 64 55 50 57 62 62 51 42 48 51 54 53 48 49 54 56 58 59 63 67 73 86 87 77 88 89
25 23 21 22 29 33 24 16 14 14 19 23 26 30 35 36 38 42 49 55 59 63 66 60 50 58 66 63 51 40 47 51 53 54 55 52 55 57 57 60 64 68 65 65 71 80 90 92 91
22 22 22 33 27 30 42 23 15 18 19 22 25 28 32 36 36 42 50 56 58 64 61 53 55 62 62 57 60 49 49 47 49 54 55 54 58 60 59 62 66 63 63 67 78 86 93 93 82

GFSSGP_850_rhum_024.txt.gz
RH
6 7 14 20 12 16 18 13 9 29 42 38 36 31 42 52 65 85 87 81 84 64 50 54 55 58 62 68 71 69 66 62 47 30 23 19 18 12 12 12 12 14 16 18 20 20 20 20 20
10 30 20 9 14 18 14 13 39 40 37 38 38 38 36 51 69 90 87 91 88 66 56 58 62 68 72 75 76 72 66 50 32 24 21 19 15 13 13 15 21 23 23 21 19 19 19 19 19
22 17 7 9 13 17 14 18 30 35 35 37 37 38 40 50 74 86 84 93 90 71 70 64 68 72 75 77 79 72 55 35 23 23 19 19 14 14 19 24 21 20 20 19 22 24 26 28 28
19 11 8 15 15 11 10 31 29 30 34 31 34 36 48 53 68 85 92 97 92 94 70 69 78 78 81 81 80 67 40 28 22 23 22 17 14 23 24 20 18 19 22 24 27 31 31 31 30
16 9 10 12 12 11 10 33 39 59 76 33 29 30 42 56 83 91 95 93 91 84 83 88 87 86 85 81 78 54 38 22 23 22 21 14 23 28 21 23 24 25 26 30 33 33 32 32 31
11 9 13 13 11 9 8 32 52 65 75 41 30 29 46 62 76 84 94 94 94 88 68 78 91 90 84 78 68 50 32 23 26 19 18 20 33 27 26 26 28 29 31 34 34 34 34 37 41
13 9 10 11 11 15 24 42 49 51 55 37 39 53 52 59 76 75 68 91 100 86 80 89 99 92 84 78 62 48 27 24 24 20 19 37 34 30 30 31 32 34 35 36 36 35 38 52 52
9 9 11 10 10 19 38 40 38 43 43 42 51 44 59 74 73 81 80 81 85 97 70 96 94 88 75 64 54 39 22 24 24 23 38 34 33 32 34 33 34 37 39 39 38 39 42 57 59
8 10 13 11 12 49 62 66 38 30 41 33 38 52 74 75 66 86 88 71 91 78 80 92 86 77 58 51 52 37 24 27 30 34 47 74 72 74 81 54 35 39 39 40 44 51 59 60 62
9 12 11 15 29 60 53 47 37 24 26 42 46 66 80 88 81 73 90 94 80 78 93 82 68 72 80 61 47 31 30 58 54 45 74 81 80 81 73 59 55 58 56 60 67 66 66 70 66
9 11 9 18 43 42 40 30 22 38 46 46 73 57 69 81 85 76 87 88 86 91 92 88 83 80 89 65 61 59 73 87 91 78 84 83 70 76 79 70 71 68 68 70 68 68 68 66 65
11 8 9 17 38 38 59 32 35 41 44 35 46 50 62 72 77 80 76 83 88 87 78 75 70 76 72 62 62 65 77 84 85 78 80 73 80 80 64 67 69 71 76 72 70 69 66 63 57
10 10 10 17 19 30 33 35 38 40 35 41 58 54 52 57 58 59 57 67 74 81 66 56 73 84 68 69 67 75 75 73 76 79 56 68 87 78 58 49 65 54 72 72 71 70 66 62 60
10 12 10 15 19 16 22 30 32 36 41 49 51 48 48 44 44 42 44 53 60 74 52 44 79 53 73 73 74 68 59 58 60 71 78 68 67 51 56 50 62 70 74 72 70 65 64 60 55
13 13 11 11 16 15 24 26 28 29 33 35 36 35 38 38 38 38 39 45 52 67 79 82 77 60 85 72 70 66 48 50 57 63 67 82 76 76 67 72 76 76 73 69 60 59 60 60 57
13 13 17 11 15 18 18 25 16 23 26 29 31 33 34 34 34 36 40 43 48 62 75 79 78 83 85 72 54 49 45 53 64 62 64 72 66 72 79 76 77 65 61 60 61 61 62 61 64
16 21 16 12 13 17 18 25 14 18 25 25 27 30 32 36 34 35 37 39 46 63 75 79 85 87 71 59 51 58 62 61 63 64 69 66 64 62 73 71 58 52 56 66 69 70 67 69 67
22 17 14 13 10 14 15 17 14 16 22 25 26 29 34 37 36 40 39 38 44 64 75 82 90 69 73 68 68 71 72 78 76 74 74 63 48 46 54 67 63 63 70 73 73 70 72 73 72
14 15 13 10 10 11 12 13 12 14 18 23 28 30 34 37 40 46 44 42 41 59 76 82 88 97 93 78 81 87 88 80 76 73 74 70 62 60 59 65 70 72 73 76 75 64 59 60 57
12 14 11 9 10 11 9 10 11 13 17 20 22 28 33 35 40 52 56 56 54 70 81 80 93 98 90 82 88 86 77 75 70 66 56 60 63 65 68 64 66 73 68 56 53 55 57 69 67
13 15 18 12 9 8 21 11 13 12 15 17 20 21 26 31 43 52 60 65 67 72 77 79 84 94 84 82 74 72 68 63 62 61 66 65 65 66 64 67 66 53 57 62 60 63 64 70 72
20 20 17 20 16 19 19 32 49 36 17 16 19 21 24 27 39 49 60 67 72 75 83 82 83 86 76 71 72 66 57 59 66 65 67 72 73 71 62 52 50 54 59 68 67 70 67 68 70
29 20 21 16 15 31 32 35 33 36 32 24 24 26 27 28 36 49 59 62 69 78 81 82 76 75 75 57 58 62 63 65 66 67 63 56 50 46 39 38 38 33 34 51 65 71 75 78 75
20 22 19 15 16 57 27 43 29 32 34 58 23 26 30 34 40 49 58 67 72 77 73 71 71 63 62 66 66 64 64 61 60 56 47 52 42 36 37 35 26 18 46 55 63 72 75 78 84
14 17 30 57 65 49 16 19 36 25 45 65 63 28 32 39 46 54 60 63 68 71 72 68 59 64 69 71 69 66 61 54 48 62 61 43 33 35 31 27 26 37 48 63 72 73 80 78 73
37 16 37 82 88 36 20 23 16 20 20 32 31 33 41 48 50 49 56 58 63 68 66 59 62 69 71 64 61 57 46 62 64 54 23 20 32 28 36 39 37 34 60 71 77 81 72 81 82
17 21 17 36 41 40 21 12 11 17 18 16 30 36 44 46 45 43 46 50 57 64 64 59 63 65 62 60 54 47 62 61 45 30 30 34 30 36 43 43 45 53 59 65 75 64 85 88 84
18 14 29 24 38 38 21 16 19 23 19 20 26 34 41 44 40 39 40 45 53 61 63 61 61 59 58 54 51 61 57 44 38 34 48 49 43 37 49 52 58 61 64 60 65 76 76 75 78
23 24 18 17 34 55 50 23 15 16 16 20 22 32 36 41 38 37 39 45 52 60 62 64 61 54 53 53 62 59 49 45 42 51 56 53 50 54 58 58 59 62 64 63 66 69 74 82 77
18 23 19 58 38 50 61 36 14 16 15 18 19 22 33 37 37 37 40 46 53 59 62 68 58 51 60 64 60 58 44 49 51 51 55 56 56 58 60 61 61 64 64 65 60 58 72 74 80

GFSSGP_850_rhum_030.txt.gz
RH
21 11 9 22 31 29 28 24 17 37 50 47 51 64 79 82 80 80 99 90 68 80 81 80 75 71 52 59 69 65 46 25 15 12 10 10 10 13 16 18 17 16 17 17 18 20 42 51 49
13 13 27 30 24 26 23 22 24 55 52 46 48 64 74 90 97 99 100 85 52 69 81 80 66 56 55 69 70 58 32 20 15 13 10 11 14 18 17 17 17 19 23 27 28 28 28 36 38
14 27 37 31 25 24 23 28 52 55 43 40 44 51 67 98 99 99 99 78 59 73 78 83 63 54 68 73 68 44 27 20 15 12 12 14 19 16 16 17 21 26 28 28 28 29 29 28 37
22 26 24 19 20 18 15 17 49 51 46 43 47 58 70 89 95 91 92 74 66 74 78 70 58 68 75 74 58 32 21 18 16 12 13 20 16 16 18 21 26 28 29 29 30 36 33 33 36
25 25 19 19 17 15 56 59 56 65 61 56 50 64 92 95 81 87 87 68 62 67 68 65 70 76 78 70 42 26 21 16 15 13 20 17 17 20 23 25 28 29 29 30 36 43 44 42 40
26 18 21 22 15 54 62 56 59 69 66 60 52 64 99 100 97 100 96 81 78 82 80 81 87 83 80 57 35 21 18 15 14 16 23 17 20 24 26 28 29 30 32 36 41 49 51 50 48
28 28 28 20 19 41 57 56 61 61 63 58 61 78 99 99 100 97 100 99 90 98 99 99 93 95 85 57 34 19 22 16 15 22 20 19 23 26 28 29 30 32 36 40 48 54 56 54 51
18 22 20 18 15 30 60 57 61 51 58 57 70 85 99 100 99 100 99 100 95 99 98 96 89 75 61 60 31 21 20 16 18 28 23 21 24 27 29 32 34 35 36 48 59 57 58 60 62
20 23 25 18 24 54 56 58 54 56 58 85 78 82 99 100 100 98 97 93 89 88 90 77 63 82 78 47 26 22 20 19 33 27 25 24 24 28 30 34 40 47 54 65 68 68 67 67 65
20 25 20 16 42 54 53 57 50 47 84 96 99 83 79 95 84 73 92 94 89 71 66 69 70 89 69 43 24 22 18 26 31 28 33 35 55 51 67 65 68 68 70 71 69 71 70 68 64
18 21 16 18 42 41 48 48 51 52 64 80 86 92 75 80 75 67 86 73 66 67 54 71 91 91 59 37 22 24 24 50 60 65 62 59 66 72 76 75 75 73 75 71 70 71 70 66 63
16 14 13 26 41 43 47 42 36 46 50 52 68 73 87 75 64 58 73 74 61 64 62 89 79 74 50 32 25 32 34 68 82 78 71 54 70 68 79 82 76 74 76 73 70 71 70 68 67
17 15 17 31 36 38 38 49 46 62 59 62 72 96 87 75 62 53 51 59 62 70 82 73 78 63 44 36 52 57 61 65 69 72 79 78 86 75 80 77 72 61 64 77 77 74 72 69 67
19 15 33 37 40 40 38 43 41 63 61 80 83 85 70 70 55 55 62 71 84 87 83 83 77 62 67 71 66 66 76 69 62 79 86 71 73 81 78 75 62 55 64 68 77 72 66 54 51
20 16 27 44 45 45 36 40 38 54 64 68 65 71 76 60 60 53 57 70 84 83 88 89 80 67 68 69 74 73 74 89 84 79 76 70 63 64 62 59 70 70 70 69 62 49 48 48 49
21 20 23 37 40 38 26 35 37 47 58 62 67 65 72 70 64 58 62 62 78 82 98 84 77 71 66 66 72 77 82 84 79 69 58 56 54 63 69 75 75 72 54 43 41 42 44 50 58
26 24 21 25 25 28 25 32 37 40 48 54 56 60 68 68 75 68 64 61 59 78 79 78 74 68 70 72 74 74 71 65 60 61 60 60 63 71 73 74 67 50 42 42 45 50 56 64 58
28 27 23 22 18 23 25 29 40 41 42 48 49 50 52 72 74 60 63 64 57 32 42 59 68 72 67 70 69 71 61 56 65 65 65 67 68 59 44 44 46 42 45 50 56 60 61 43 26
23 27 30 24 17 24 26 27 45 46 47 47 42 41 43 47 59 56 57 63 60 41 36 38 38 58 59 73 66 67 54 64 72 71 66 57 45 38 42 43 42 46 54 56 51 39 27 21 20
31 32 32 25 19 24 26 24 34 35 40 44 41 40 40 45 54 52 54 63 61 57 58 51 45 44 52 65 65 58 56 69 76 69 68 49 44 43 44 47 48 45 44 38 24 21 22 26 36
31 34 32 29 19 15 22 32 27 22 36 40 40 36 37 37 42 49 51 52 58 65 62 64 62 62 58 68 75 60 69 77 76 72 70 55 49 50 52 48 48 53 38 24 28 35 45 55 60
35 26 27 26 29 24 25 43 37 30 30 43 39 42 41 39 37 40 44 51 51 57 62 67 69 80 81 81 82 59 71 70 68 68 69 57 56 56 56 52 55 52 37 36 30 20 28 51 67
35 22 23 26 34 33 31 34 33 35 24 38 32 32 41 43 39 44 44 45 51 59 67 62 81 93 92 84 74 72 68 65 66 74 68 62 60 61 53 56 53 41 28 20 11 12 22 49 74
24 25 36 45 46 55 42 38 40 41 30 23 27 27 30 42 49 50 51 54 64 67 76 84 85 84 89 83 83 78 74 75 79 72 68 67 65 54 54 43 39 24 15 11 9 14 48 68 78
26 34 49 49 70 60 43 43 38 34 33 32 30 26 29 39 48 54 56 64 64 73 72 73 73 76 87 93 92 92 87 88 78 68 70 69 54 55 58 32 22 18 15 17 24 37 45 68 76
31 34 59 53 70 53 43 51 39 28 26 26 26 30 31 40 49 53 58 62 66 72 80 86 74 78 77 84 81 77 74 70 68 68 69 55 58 39 30 20 24 19 18 21 24 30 41 64 73
30 32 34 66 74 73 56 32 28 35 37 36 41 34 33 46 55 56 61 63 66 73 76 73 77 78 77 67 69 69 69 69 68 61 59 56 37 37 30 27 21 20 22 23 26 38 56 60 65
30 25 36 57 56 58 40 36 43 31 29 37 48 40 41 54 55 55 60 67 76 78 74 76 79 76 77 73 71 68 66 62 58 59 55 50 49 39 38 34 26 26 35 32 39 54 68 70 70
33 31 30 40 56 57 69 46 26 30 32 44 48 36 43 54 54 56 60 67 70 76 75 74 74 73 71 67 64 68 67 59 56 57 53 40 50 62 48 44 41 42 52 43 48 65 66 66 68
31 33 42 62 37 76 77 49 28 26 30 38 36 35 47 51 50 52 55 58 65 66 65 59 58 56 52 56 61 64 59 56 57 55 46 51 62 57 54 55 56 51 54 47 44 64 65 74 69

GFSSGP_850_rhum_033.txt.gz
RH
22 17 11 20 30 31 29 25 18 24 52 58 56 61 75 96 80 74 99 86 72 92 93 87 81 68 45 50 55 51 28 16 11 9 10 11 14 15 15 14 15 16 18 28 47 51 45 45 45
16 15 20 29 28 28 25 20 20 27 54 66 60 70 82 94 95 98 100 81 75 93 90 88 81 61 50 57 59 43 22 13 10 10 11 14 17 16 15 17 20 25 27 27 34 38 41 43 38
18 27 38 33 29 25 24 21 55 53 52 56 53 62 80 96 98 99 98 97 82 96 94 90 77 51 60 64 56 31 17 13 10 10 14 17 16 16 18 22 26 27 28 29 31 41 44 48 46
22 28 21 20 18 17 16 17 26 55 55 61 64 69 92 100 89 94 96 100 99 98 97 93 76 53 68 64 46 24 15 13 10 12 18 16 16 19 22 26 28 28 31 34 34 42 43 43 45
24 23 22 19 18 17 58 64 65 70 74 66 69 90 97 99 99 97 90 99 99 99 100 93 62 68 73 58 31 19 14 12 11 17 17 16 18 23 27 28 28 30 38 42 41 37 40 37 35
27 18 23 23 17 35 60 63 63 71 66 54 61 81 99 99 100 100 99 100 99 92 100 88 80 84 66 38 24 17 14 12 13 20 17 19 23 27 30 30 30 36 39 42 42 43 45 48 47
30 34 29 21 22 19 60 55 64 63 62 73 57 88 98 100 98 99 100 100 100 100 99 96 100 81 44 31 25 21 16 12 19 20 19 23 26 30 31 31 34 37 41 42 45 50 53 56 58
20 26 22 18 18 21 56 56 54 56 62 72 70 94 96 100 100 98 92 100 100 100 100 100 98 67 45 38 29 20 14 15 24 20 22 26 29 31 33 35 36 39 42 52 55 58 60 62 64
21 29 27 21 23 45 55 56 66 74 78 98 93 94 97 100 100 96 99 84 72 91 94 92 82 56 45 43 36 21 18 18 30 22 25 29 32 34 36 36 35 39 58 58 57 60 62 64 65
23 28 22 18 28 53 57 57 56 76 95 99 99 99 99 99 99 98 95 100 88 73 80 83 75 61 56 40 25 25 19 33 30 26 30 36 39 34 37 43 55 61 64 62 64 64 66 67 65
20 24 19 15 33 44 53 58 51 75 83 95 97 100 99 100 100 99 100 98 94 73 59 71 70 84 63 38 32 25 29 35 34 39 57 56 54 63 62 65 64 64 67 68 68 68 70 67 66
20 17 15 15 39 44 50 47 46 56 60 84 95 72 71 100 100 84 91 90 89 79 68 69 86 80 60 37 28 26 36 38 47 52 60 67 62 64 70 70 70 71 70 69 69 72 70 70 68
18 16 15 15 41 42 44 45 62 87 70 74 69 62 60 79 92 89 81 60 66 65 64 69 84 76 52 34 33 30 66 67 67 68 67 61 55 57 72 74 73 70 62 70 75 75 75 73 67
20 22 41 40 43 43 50 57 51 82 81 72 73 51 45 52 74 79 72 66 55 56 71 72 67 56 54 37 40 36 61 72 71 78 75 74 71 73 76 76 76 70 66 77 81 80 74 62 54
22 26 42 45 46 44 41 44 62 76 91 97 74 60 52 62 64 53 51 58 54 61 76 62 66 62 53 48 60 62 61 60 63 78 87 76 70 76 74 74 71 73 78 77 73 58 49 52 55
22 22 33 40 44 37 29 42 46 72 89 97 96 88 76 70 52 54 50 54 63 72 67 65 67 63 57 70 76 78 78 80 83 84 84 77 77 75 70 69 77 78 74 58 47 47 51 55 57
29 24 25 38 36 37 31 35 44 66 77 83 98 79 69 70 66 62 55 57 72 72 70 72 73 70 69 72 75 80 88 94 94 83 66 62 64 78 83 84 80 74 46 47 48 50 53 56 39
30 29 27 25 18 36 44 32 48 58 70 73 77 72 66 64 56 50 53 61 68 69 72 69 79 76 69 73 73 88 97 93 83 65 63 63 67 75 77 77 62 44 49 50 48 48 41 24 18
29 33 35 28 23 25 34 30 46 50 53 61 63 72 72 60 55 57 57 59 67 80 81 77 77 73 69 72 76 87 84 73 64 68 70 69 69 69 60 48 47 51 50 46 46 35 20 14 13
31 33 32 31 23 25 30 27 42 54 49 52 53 58 67 65 62 65 63 65 65 70 75 84 79 71 72 72 71 75 75 70 67 76 73 66 57 47 46 51 53 50 48 51 42 24 15 14 13
30 33 36 34 24 22 28 29 28 29 44 46 51 47 56 53 58 64 60 62 62 64 50 50 49 53 65 70 74 77 76 70 76 78 74 66 52 50 54 56 55 51 54 51 43 21 16 12 14
37 29 33 29 28 22 25 38 36 33 41 47 47 48 50 47 54 59 62 58 57 54 50 46 43 44 49 62 76 78 72 66 67 72 73 73 67 62 59 59 53 55 52 48 29 20 12 13 24
34 30 30 27 35 34 35 36 34 36 37 45 47 45 46 46 48 53 57 56 55 65 57 52 55 60 55 62 81 79 84 75 67 74 74 76 71 61 61 59 55 48 47 36 16 10 12 21 42
27 27 37 48 46 55 41 39 40 40 32 32 42 42 44 45 44 47 49 58 58 63 64 64 68 65 72 77 73 85 91 75 70 72 77 77 70 65 65 56 50 53 56 16 17 12 15 30 57
30 35 46 46 66 58 43 43 40 28 31 31 38 38 36 41 46 46 48 50 55 53 59 65 65 79 89 93 95 95 88 77 80 71 76 76 70 69 58 49 46 65 40 34 15 19 23 31 56
33 33 54 49 65 46 47 57 38 30 30 28 26 23 26 29 42 47 45 47 54 53 56 70 66 69 82 86 89 86 82 92 88 86 80 76 73 62 48 47 64 48 21 18 20 21 28 37 53
31 36 35 65 75 71 55 42 29 31 33 47 40 33 33 31 40 44 49 52 55 59 58 56 64 73 75 74 79 85 87 83 90 98 81 76 58 58 64 79 33 36 25 29 26 25 29 45 67
29 32 38 57 50 58 49 40 43 32 28 36 54 41 38 35 41 47 53 54 56 57 62 58 68 72 72 78 73 75 79 78 78 77 73 67 71 74 79 50 68 48 43 32 34 34 37 57 61
34 34 36 43 59 58 67 50 32 32 29 29 34 36 38 44 45 45 48 54 56 59 63 63 69 75 79 78 75 75 72 71 71 71 65 59 66 66 48 66 62 52 40 40 46 42 41 53 60
31 31 40 64 43 79 79 53 28 26 30 31 28 26 31 38 38 37 46 56 57 59 61 64 68 74 77 79 77 78 76 68 66 62 60 57 53 45 60 54 56 58 40 43 37 49 60 56 57

GFSSGP_850_rhum_036.txt.gz
RH
21 17 9 21 29 31 28 25 20 20 37 72 71 71 77 96 85 76 98 95 81 71 84 84 78 58 42 45 43 38 19 11 8 10 10 12 16 16 16 16 21 32 36 39 41 44 42 54 62
14 13 19 27 30 30 24 20 20 40 64 62 56 71 88 89 91 98 100 92 78 82 86 87 78 55 45 49 48 30 13 9 9 10 13 16 16 16 17 21 28 41 44 41 38 38 38 45 52
15 27 33 30 31 27 24 18 46 65 59 60 60 74 90 96 99 97 98 87 99 91 90 89 78 51 52 58 44 19 12 9 10 13 16 16 17 20 26 27 28 29 29 32 34 37 39 40 46
18 34 19 22 19 18 17 17 65 60 60 64 63 86 96 94 99 95 94 87 90 94 91 92 76 53 63 56 32 15 10 10 12 16 18 17 21 26 28 29 29 31 32 31 35 35 40 40 38
26 22 26 20 18 16 33 62 67 72 68 73 65 87 96 88 100 96 96 99 95 99 97 95 74 68 67 45 22 13 11 11 15 19 18 20 26 28 29 32 35 38 39 37 38 38 36 39 42
26 19 27 25 18 16 59 61 63 70 68 70 77 81 97 94 100 99 99 99 91 99 100 98 83 78 65 31 18 15 12 14 21 18 17 23 28 30 30 35 39 39 43 44 45 46 49 46 46
30 35 29 22 24 19 56 59 64 66 66 67 61 88 97 99 94 98 96 98 100 98 100 99 100 83 58 26 20 16 14 19 18 17 20 26 31 32 33 36 39 42 43 51 52 53 54 56 58
23 30 24 22 20 19 52 59 64 64 71 82 78 89 99 100 86 100 100 100 100 100 100 97 99 78 44 26 20 17 14 24 19 19 25 30 33 34 34 37 37 41 46 49 57 58 60 60 62
20 33 30 22 22 23 57 59 67 81 82 93 90 84 88 99 95 99 100 97 93 95 97 100 78 50 35 28 26 22 17 17 19 25 29 32 35 35 35 36 40 44 52 54 57 62 64 64 65
26 31 25 21 17 44 60 53 63 77 91 97 99 99 100 99 96 97 98 89 93 98 92 82 77 60 54 47 41 31 20 21 23 29 31 32 33 35 36 38 42 54 57 60 63 64 67 68 66
24 27 22 18 16 40 57 56 58 88 90 92 99 99 100 100 100 100 94 88 76 74 86 82 74 73 60 49 30 24 19 31 27 29 31 33 33 34 41 55 60 60 65 69 69 65 68 69 68
22 20 18 16 30 49 53 51 62 62 69 79 90 93 99 99 100 99 85 76 78 88 84 84 73 67 57 36 28 22 29 33 30 37 35 42 41 46 60 61 65 70 72 71 64 70 72 72 70
20 17 19 21 42 48 45 52 68 94 82 74 84 99 98 98 100 100 99 81 60 68 64 68 76 72 56 30 32 25 39 38 39 62 70 64 60 63 65 68 72 73 70 66 72 74 75 76 71
21 27 38 46 48 48 64 66 57 94 83 78 83 99 86 71 86 100 100 99 76 69 67 78 85 73 47 35 33 31 42 53 66 69 70 58 62 65 68 71 75 72 70 72 78 80 78 68 53
24 33 38 46 46 47 44 45 72 96 73 64 77 82 69 48 53 86 94 73 70 69 61 66 82 84 61 42 38 35 59 76 76 69 74 79 70 70 82 81 79 77 70 78 78 71 52 49 51
22 22 30 40 44 45 38 49 75 90 67 76 65 71 77 59 52 66 84 74 59 57 70 73 70 71 62 40 51 37 71 78 76 77 77 78 76 76 85 82 75 71 77 75 53 46 48 50 49
32 27 29 43 42 41 36 48 67 89 77 79 75 67 64 70 58 59 68 66 57 57 70 68 66 70 56 43 71 74 63 71 78 71 70 78 77 82 87 79 79 83 77 52 49 50 50 46 26
32 31 31 29 25 41 46 37 67 84 88 88 71 81 73 68 52 41 49 54 56 65 72 68 69 65 58 57 77 86 88 87 86 84 85 72 64 70 85 88 90 79 55 51 52 51 38 24 18
31 33 35 32 25 28 42 46 59 73 79 82 84 81 78 61 43 42 44 53 60 72 68 65 65 67 67 70 76 79 80 85 91 89 78 65 67 74 89 90 79 56 54 55 51 39 30 25 18
31 33 35 31 24 28 33 40 55 66 70 76 75 72 66 60 56 48 46 47 51 56 60 64 69 71 72 71 71 78 75 84 89 77 67 72 72 83 86 75 58 57 58 54 49 39 28 17 11
32 32 35 35 30 24 29 32 56 48 57 60 66 63 64 67 62 57 55 52 49 49 52 60 66 65 69 74 73 73 82 90 81 73 74 73 72 74 70 63 60 61 56 53 49 30 15 10 8
34 31 34 36 30 27 28 33 37 45 56 53 53 60 58 52 60 60 58 58 56 56 56 59 58 62 70 70 69 71 72 79 78 75 72 75 69 64 61 61 62 58 55 50 42 25 28 28 11
34 30 33 30 35 35 36 36 31 40 44 51 47 48 51 48 46 47 51 52 54 58 60 61 62 60 78 72 71 77 83 83 84 78 80 80 74 70 68 65 64 56 52 55 68 58 61 48 8
28 30 35 46 48 54 39 42 43 48 36 36 40 44 44 47 45 45 44 49 56 55 58 58 58 57 67 71 70 76 81 87 91 87 86 82 77 76 71 67 62 52 53 70 76 77 32 10 9
31 36 47 44 65 60 43 48 45 30 29 34 35 36 39 42 42 42 44 44 47 53 55 61 62 59 59 58 65 74 81 96 97 89 86 80 76 74 73 67 62 50 62 76 71 22 15 11 14
32 35 55 43 65 44 46 51 34 29 33 35 32 27 32 38 41 41 39 42 44 48 56 59 61 64 65 59 64 77 93 99 100 94 88 82 75 78 75 68 55 71 78 79 53 23 16 15 26
34 38 36 66 77 70 54 43 27 31 44 44 37 32 32 38 38 38 40 40 44 46 45 50 59 56 54 59 77 90 100 94 93 92 95 89 82 80 76 68 70 80 75 59 33 19 19 24 29
30 37 43 56 49 53 50 42 39 31 29 44 46 40 34 34 34 34 35 39 40 42 44 46 50 55 56 63 69 72 83 81 82 91 88 92 91 86 73 66 80 65 62 48 28 32 33 37 40
38 38 44 46 59 57 64 48 36 31 33 32 34 35 35 34 32 32 36 39 41 44 48 50 55 64 63 75 75 79 84 82 67 66 75 86 86 78 63 74 69 68 52 41 37 48 44 51 55
35 38 44 64 45 79 77 57 29 29 28 27 24 25 28 33 38 40 43 45 45 44 51 56 57 50 56 55 69 75 75 65 76 78 75 75 76 63 69 55 59 55 55 45 63 59 50 58 63

GFSSGP_850_rhum_042.txt.gz
RH
22 17 14 20 14 11 12 11 9 11 19 41 50 47 44 61 57 57 99 98 99 99 90 56 53 63 72 72 68 57 47 35 20 9 9 10 12 14 15 16 21 31 41 43 41 38 39 43 46
16 13 21 14 12 13 11 10 11 22 28 54 56 61 48 61 85 96 100 98 98 99 97 88 51 50 53 52 47 38 25 16 9 10 12 14 16 16 17 21 31 34 40 48 47 41 44 45 45
17 14 18 13 11 11 10 10 17 26 41 40 45 60 66 69 85 97 96 93 100 100 97 92 55 52 50 45 34 21 14 9 11 12 15 15 16 19 26 31 31 33 40 47 45 43 43 44 43
24 23 16 12 11 9 10 10 19 24 38 45 42 48 77 88 97 92 99 96 100 99 100 66 56 55 49 35 21 13 10 11 12 16 15 15 21 26 30 31 32 34 35 38 41 40 43 44 40
20 16 14 12 11 10 9 10 28 30 39 44 49 56 68 97 89 98 98 95 97 100 98 64 58 56 42 26 14 10 11 12 16 17 17 21 28 31 28 29 30 34 37 36 38 42 42 44 44
17 14 13 12 10 9 9 23 32 42 44 51 49 51 79 99 98 99 96 98 100 99 98 84 70 50 33 22 13 12 12 15 17 17 22 26 28 27 30 32 35 36 38 41 43 47 50 50 48
16 13 13 12 12 15 24 42 42 42 40 43 57 51 96 100 100 99 95 96 98 100 100 88 82 70 57 27 19 12 16 18 17 21 29 29 30 34 37 39 39 42 47 51 53 56 58 59 59
17 14 13 12 18 19 23 42 51 47 42 68 71 49 81 92 100 100 100 100 99 100 100 92 86 79 47 40 19 17 20 18 19 29 33 34 38 43 42 45 46 48 50 55 58 60 62 62 63
19 15 14 15 15 14 32 29 56 63 52 64 78 77 91 95 100 97 100 100 100 99 99 100 94 85 65 47 37 26 24 21 26 32 35 39 53 56 61 53 51 54 58 60 61 64 65 65 65
16 15 14 12 12 14 20 30 42 54 52 55 85 98 97 99 99 100 94 98 99 100 100 100 98 82 75 56 64 55 35 28 32 34 36 66 74 70 62 51 55 59 63 64 65 66 67 67 68
16 16 14 14 14 15 24 37 46 43 40 48 65 100 100 100 100 100 99 99 99 100 100 100 82 75 75 64 48 36 32 27 34 34 44 66 60 45 68 52 60 63 68 68 68 68 68 69 69
18 16 16 16 24 26 35 46 48 49 65 72 91 99 99 100 100 100 100 100 99 100 100 95 91 85 71 67 53 39 41 43 31 52 68 39 57 44 56 77 84 69 74 71 68 68 70 71 73
19 16 19 27 29 38 42 38 49 73 84 90 99 100 100 100 100 100 100 100 100 100 100 95 74 63 54 58 64 60 44 30 38 60 37 59 60 37 50 55 75 73 71 74 69 69 72 75 68
19 20 30 35 37 35 35 41 46 74 75 76 85 92 99 96 98 98 99 98 99 100 97 87 72 72 77 72 61 46 30 30 59 72 40 37 36 38 60 62 67 73 75 70 72 76 77 74 52
20 22 27 30 35 34 37 33 48 66 67 72 71 85 98 90 95 86 99 98 98 89 79 81 73 81 85 78 52 36 57 72 71 38 42 42 41 56 64 68 73 77 74 74 73 78 76 54 48
18 18 21 20 32 34 35 31 48 61 58 61 65 63 87 99 86 90 95 98 83 86 95 100 92 75 75 75 68 72 81 72 66 64 43 64 70 66 69 73 79 78 77 76 78 78 59 53 52
18 18 19 20 29 30 30 26 38 59 51 48 54 57 66 92 95 90 87 87 84 81 89 86 70 68 82 84 46 40 44 56 73 58 70 74 67 69 74 76 80 82 79 77 78 64 58 57 49
18 19 19 21 24 31 29 27 32 50 48 41 46 49 57 74 91 95 85 83 88 84 87 85 78 93 83 85 58 71 62 76 91 76 76 76 73 72 72 82 83 85 80 81 77 55 52 47 42
19 17 18 18 18 22 21 22 24 41 50 44 42 47 55 53 61 80 85 85 85 90 89 93 98 96 96 89 91 76 71 82 97 80 79 73 75 73 76 80 84 87 87 84 68 56 50 57 33
23 20 20 21 20 21 16 18 20 30 44 44 41 44 47 50 57 62 74 81 83 84 91 93 93 96 96 98 96 78 80 80 88 83 74 78 76 77 68 76 83 91 89 81 59 55 54 48 60
24 23 23 23 23 20 22 20 24 30 40 46 46 40 43 46 50 59 62 68 78 77 83 88 92 98 98 96 95 84 89 98 97 77 77 75 74 81 70 74 83 89 87 69 58 53 50 62 72
24 20 22 25 25 22 22 22 20 22 33 37 39 44 37 42 49 51 57 59 64 71 76 82 88 93 96 98 92 94 80 79 93 83 73 72 79 80 72 75 82 87 78 61 56 54 52 68 82
22 23 24 25 23 24 22 19 17 22 20 23 30 36 37 34 40 46 50 54 60 66 75 82 86 93 95 97 96 97 92 83 86 98 84 75 81 78 80 83 83 80 67 58 58 54 55 76 85
24 25 26 28 25 30 22 22 18 16 14 14 18 26 34 38 40 40 43 52 57 65 72 71 73 83 92 99 77 84 86 96 92 74 74 81 85 81 82 84 79 74 64 61 59 53 61 76 60
24 26 34 33 34 33 28 27 18 15 17 18 18 19 26 33 38 41 43 46 53 63 76 63 55 66 76 60 59 62 67 72 74 77 76 80 87 84 83 81 77 72 66 65 57 60 75 64 58
24 24 32 37 36 27 31 27 18 17 19 21 25 27 28 26 32 36 42 44 49 60 76 75 54 65 59 63 67 71 68 70 82 100 100 97 92 91 91 86 80 76 72 63 63 65 80 47 26
27 30 23 34 46 34 22 19 15 17 18 19 21 27 27 27 27 31 37 42 49 59 73 86 87 80 78 62 68 51 50 62 79 99 100 100 99 100 96 91 86 80 76 66 64 76 52 30 53
26 23 32 29 40 38 25 24 17 16 14 16 15 17 24 31 32 35 38 41 50 56 73 89 91 88 97 74 62 61 61 64 75 87 91 95 100 99 100 96 90 83 73 66 70 82 61 71 87
30 29 28 26 30 35 35 24 15 15 15 18 17 19 22 26 33 40 44 51 58 63 73 85 88 86 90 86 80 69 67 72 76 71 73 75 78 84 94 98 92 85 76 65 84 69 78 89 92
19 22 25 33 31 36 43 29 14 15 18 18 18 21 25 30 31 40 49 58 55 53 68 78 82 84 88 96 97 74 70 67 65 66 70 76 86 95 100 100 95 87 68 77 79 73 76 73 99

GFSSGP_850_rhum_045.txt.gz
RH
20 19 23 15 13 10 10 9 6 10 11 17 26 25 29 31 34 81 73 95 80 88 90 76 98 91 83 83 79 73 72 67 46 25 9 11 12 12 13 20 34 46 42 38 36 40 43 42 36
27 20 17 13 13 10 9 6 8 8 17 26 32 34 28 37 60 90 88 80 95 90 94 87 100 98 84 84 80 76 74 50 24 8 10 12 12 14 20 33 46 48 42 37 40 42 41 34 34
26 21 16 13 11 10 8 8 8 14 20 19 22 34 35 46 64 84 86 90 89 91 90 87 95 85 84 82 80 76 51 26 9 9 11 14 16 19 32 40 47 52 47 40 43 41 42 36 38
20 18 13 10 10 8 7 8 8 12 15 20 19 27 57 79 80 75 84 59 48 77 91 77 90 86 83 82 75 51 28 10 10 12 16 19 21 32 35 35 42 49 45 43 44 44 40 40 39
16 12 12 12 9 7 7 6 8 15 17 24 26 27 44 95 100 91 86 96 76 98 84 81 66 78 76 64 48 28 12 11 13 17 19 23 32 31 31 33 38 39 42 42 44 42 42 40 38
14 11 11 11 8 7 7 8 15 16 23 30 31 27 80 89 99 100 96 95 96 99 98 82 70 67 58 44 26 14 13 14 18 18 24 34 32 30 32 35 38 36 38 42 44 47 48 49 48
13 11 12 9 9 14 18 26 28 25 24 28 40 34 75 98 95 97 97 95 99 100 100 82 86 61 43 28 18 14 17 20 20 24 31 32 30 30 34 37 37 40 43 47 53 55 56 58 56
12 10 11 9 18 28 19 20 31 32 36 45 47 38 54 97 99 99 98 100 100 100 97 87 95 72 40 23 20 17 22 22 22 26 29 31 33 36 38 40 44 49 52 54 57 60 60 60 56
12 12 12 11 13 13 15 20 27 38 37 46 54 69 94 80 98 99 99 100 100 100 95 85 77 87 62 35 21 26 32 21 28 32 32 37 38 41 56 52 48 51 55 58 60 63 64 62 60
12 12 12 10 11 12 14 20 28 39 28 36 78 95 99 96 100 98 100 100 100 100 99 98 86 81 57 59 62 49 42 39 37 35 42 49 39 68 74 52 52 55 60 62 63 65 65 66 60
12 14 11 11 15 15 16 21 31 31 41 88 53 100 98 100 99 99 100 100 100 100 98 100 96 77 58 54 56 48 58 78 43 48 56 54 71 72 58 53 59 63 66 67 66 66 67 70 61
14 12 12 12 14 18 24 26 32 32 52 65 83 98 99 99 99 99 91 99 100 100 100 100 97 86 90 88 78 66 70 43 54 58 76 64 81 72 78 76 81 83 81 76 76 74 67 68 65
14 13 15 19 20 25 30 27 38 55 68 86 98 100 99 99 100 100 100 100 100 99 99 99 99 91 82 80 79 75 65 47 59 59 82 82 75 75 74 75 78 78 81 82 77 70 74 71 62
14 14 20 21 22 25 26 28 35 52 54 73 81 96 92 99 100 100 100 100 100 99 99 95 90 94 92 84 76 50 52 60 79 82 76 76 73 78 74 84 78 82 81 80 77 77 80 74 67
14 16 18 20 21 22 28 55 30 47 49 49 61 88 94 99 82 98 99 98 100 100 100 99 91 88 80 62 52 52 62 73 83 74 75 74 78 77 81 86 85 82 81 82 80 83 79 70 59
13 13 27 16 19 22 41 87 32 41 44 44 42 65 82 86 98 100 99 96 99 89 86 84 86 76 71 68 63 63 65 70 64 72 86 86 88 91 90 92 88 88 82 82 85 82 75 62 57
13 19 25 23 16 26 21 51 31 35 35 40 38 51 70 67 89 92 90 87 87 95 90 97 80 80 83 82 85 78 68 74 66 69 78 89 93 89 79 92 92 75 86 86 85 81 71 62 52
14 15 15 24 56 18 20 25 27 34 30 35 36 43 61 57 72 81 80 72 70 78 91 89 89 95 83 81 87 80 71 76 67 68 75 87 95 66 67 92 95 77 90 90 87 79 71 55 50
13 14 17 19 13 15 17 16 26 29 32 29 35 38 48 60 67 78 74 76 71 72 77 80 88 84 83 89 80 71 67 65 66 72 80 88 95 78 78 90 97 82 90 89 88 84 68 60 53
15 15 14 13 14 16 15 19 13 22 27 28 28 34 36 40 59 73 73 62 73 69 73 77 82 86 95 93 86 72 66 59 66 74 93 90 97 98 84 94 92 88 90 91 90 78 68 61 57
17 18 21 17 18 15 15 16 14 16 24 27 27 29 35 37 41 56 61 60 61 63 67 70 73 78 82 79 80 73 66 62 67 73 83 88 98 96 95 97 96 95 91 94 88 78 63 58 69
20 14 17 18 19 22 19 30 33 16 22 26 27 27 28 32 36 41 49 61 63 64 66 69 70 73 81 78 76 72 64 66 72 74 89 99 100 98 99 99 95 93 95 91 89 78 62 58 66
18 18 19 19 21 20 17 16 22 14 17 20 23 26 25 27 31 37 41 42 56 64 66 72 71 70 74 79 76 74 73 68 70 75 86 97 100 100 98 99 95 89 94 91 85 70 61 68 60
16 21 20 20 21 31 18 17 28 15 12 10 16 22 25 24 28 33 38 41 43 49 61 69 72 70 70 74 80 82 79 80 73 76 90 91 100 96 95 96 81 79 84 85 78 68 64 55 60
20 24 33 33 32 33 26 19 17 32 11 12 12 14 20 25 26 28 32 37 42 47 55 63 68 65 71 77 81 84 82 68 65 89 96 91 96 94 94 87 82 83 82 82 76 66 64 57 63
22 22 32 65 34 27 24 21 17 13 13 13 14 16 16 20 26 28 27 30 36 44 53 64 66 68 67 83 86 53 58 52 57 60 74 85 81 90 98 94 86 86 84 82 75 70 59 63 73
20 25 19 34 28 30 21 15 12 11 11 12 13 18 19 20 20 24 27 28 32 39 49 62 71 71 71 83 86 71 62 56 59 56 73 81 96 99 98 97 94 91 86 82 78 67 63 69 63
20 18 29 26 39 45 21 19 17 15 13 12 11 13 17 23 22 21 24 26 31 37 44 58 75 77 84 87 93 71 72 63 58 59 72 96 99 99 97 98 96 96 89 82 82 64 68 71 70
23 26 23 22 28 41 36 22 16 13 12 13 13 13 14 16 26 29 29 30 33 37 44 58 73 75 86 97 92 96 74 76 76 76 97 100 100 99 98 99 99 97 91 93 73 68 72 74 78
18 21 22 32 30 29 33 29 14 13 12 14 14 15 16 18 20 27 36 42 45 48 49 60 72 74 72 84 88 99 98 97 86 97 100 100 100 100 99 99 100 100 98 94 70 73 80 73 88

GFSSGP_850_rhum_048.txt.gz
RH
15 19 20 25 17 15 14 10 7 7 14 35 39 62 69 47 44 56 71 45 51 90 87 94 96 86 79 75 68 66 67 64 48 27 10 14 17 14 15 28 46 65 42 34 41 39 32 25 24
21 34 20 15 17 18 11 7 7 12 29 19 22 48 46 47 42 82 71 50 46 70 74 88 98 99 87 80 72 70 69 60 38 13 11 14 13 15 27 38 43 38 35 40 40 31 31 30 31
16 23 17 16 17 15 11 10 10 10 17 20 22 20 31 92 62 74 94 91 78 81 64 82 96 99 92 83 76 73 70 48 21 10 13 12 15 25 38 41 36 36 40 40 38 35 36 30 42
26 19 16 16 11 8 7 10 9 8 10 16 23 15 57 82 88 76 77 96 72 64 51 61 94 95 97 86 79 78 58 31 10 13 13 16 24 36 43 44 41 38 41 41 40 37 36 29 39
19 14 14 14 12 10 6 7 7 8 11 32 26 30 74 86 86 90 85 99 85 65 78 77 57 99 99 87 82 71 44 14 11 14 16 21 32 40 43 45 41 40 41 41 38 36 36 31 28
17 13 15 13 11 10 24 34 33 12 12 36 46 59 70 49 80 90 99 95 89 90 90 87 92 98 96 90 81 50 21 11 13 18 19 31 37 37 40 42 40 40 41 42 45 46 48 38 30
14 13 14 11 15 18 32 30 49 42 46 71 62 64 52 89 86 96 98 100 100 95 96 86 98 100 100 91 57 28 12 14 20 21 29 37 39 38 39 40 37 40 44 50 52 54 54 42 33
12 10 12 11 13 22 17 24 27 22 63 41 41 52 73 94 86 86 95 100 100 99 100 85 95 94 93 73 54 25 20 20 22 31 39 35 38 37 37 37 40 44 52 55 58 58 56 46 36
11 13 15 15 17 14 12 14 20 38 33 71 78 93 89 95 85 86 98 99 100 100 100 87 83 82 73 68 47 41 28 26 40 46 38 38 38 39 38 45 49 52 56 58 61 62 60 49 42
10 14 16 10 10 13 12 14 42 67 50 65 41 55 95 99 99 99 99 98 99 100 99 91 92 85 72 61 46 38 40 52 48 40 38 40 45 44 44 48 53 57 60 60 62 63 64 65 57
10 13 12 10 13 13 13 16 20 28 60 58 62 64 94 100 99 98 100 100 98 100 99 94 86 80 69 66 61 61 46 38 46 46 44 50 53 63 50 52 56 61 63 63 64 66 70 72 61
12 10 11 11 14 14 14 23 28 44 82 82 96 95 99 98 100 100 100 100 100 100 100 100 96 91 76 84 77 57 55 53 56 77 70 72 70 61 55 55 59 64 65 65 71 74 76 66 59
11 11 12 15 17 16 18 36 54 55 85 96 98 96 99 99 99 100 99 100 99 99 100 100 100 95 92 76 73 85 59 61 76 60 75 58 56 63 60 72 74 69 76 76 77 75 68 68 57
11 13 12 17 16 20 49 68 72 57 60 78 87 98 99 99 98 100 99 100 100 100 100 99 86 76 70 86 95 87 77 58 57 52 50 70 73 76 73 78 78 76 80 82 79 76 75 76 58
12 13 12 16 18 19 35 45 63 42 46 60 78 91 99 98 98 95 100 100 100 100 99 98 93 99 92 84 81 75 64 62 54 59 82 71 79 72 74 74 77 77 82 81 79 77 78 75 60
14 12 16 15 21 36 34 61 44 44 40 40 71 80 92 88 98 99 99 98 98 100 100 99 98 94 89 88 90 71 68 44 68 80 78 72 77 76 81 82 85 83 82 82 81 78 77 71 60
15 17 17 17 19 23 50 79 67 53 35 34 52 62 76 93 97 93 99 95 90 95 87 86 87 91 91 81 76 59 51 52 46 39 49 70 64 88 74 90 85 87 83 83 85 81 78 68 61
17 15 14 24 24 21 25 57 71 70 29 32 40 57 64 72 78 88 90 86 84 75 78 82 78 75 64 60 59 72 79 75 72 73 72 81 75 68 74 82 91 75 83 86 87 83 79 67 60
11 13 19 20 19 26 16 18 55 55 41 31 36 49 54 64 79 84 79 74 76 66 73 65 67 61 63 63 62 87 74 74 68 67 66 76 73 64 69 80 94 70 80 90 90 86 79 70 56
13 14 14 12 16 15 12 15 38 62 44 27 33 43 48 56 78 74 69 73 78 77 68 73 77 86 86 82 83 85 75 66 66 68 67 76 83 80 75 78 94 76 81 92 89 86 82 74 62
15 15 16 23 17 15 15 15 21 26 22 24 28 34 44 50 67 76 72 69 73 78 74 80 78 79 91 82 70 85 68 66 61 64 70 78 81 83 83 84 93 93 84 90 86 84 83 69 63
17 13 14 17 18 21 18 28 19 17 31 23 23 29 34 37 61 68 75 74 72 70 72 76 79 79 76 77 82 70 76 67 61 61 75 76 75 80 86 93 93 98 95 91 88 85 85 69 63
16 17 18 18 19 20 22 28 18 17 23 23 24 26 31 35 38 60 62 64 66 64 70 67 70 71 76 75 87 80 76 64 62 64 64 72 77 82 96 97 98 94 96 93 90 88 86 74 63
14 17 20 20 22 34 21 20 31 28 32 19 21 24 25 30 33 39 48 56 59 60 64 65 66 68 72 72 66 77 77 70 67 74 75 74 79 80 95 98 100 100 96 89 93 89 82 74 66
16 22 36 38 39 41 19 22 25 23 23 17 18 21 24 25 28 33 39 43 53 58 61 65 69 69 70 71 73 67 75 74 69 70 75 78 75 90 81 79 89 95 99 98 97 89 85 76 68
21 22 40 65 69 52 32 26 18 17 13 12 12 13 20 24 25 29 34 40 41 45 58 63 68 67 71 69 74 75 51 52 47 69 76 70 60 66 93 94 96 96 92 99 98 90 86 80 84
21 27 21 50 47 56 41 30 19 13 12 12 13 14 16 16 24 27 29 35 40 41 44 51 61 70 70 70 71 66 49 49 68 75 63 66 63 71 95 100 99 99 94 98 99 88 87 91 87
18 17 31 28 52 56 24 19 21 17 13 12 11 14 17 20 20 21 26 28 33 40 42 45 50 58 65 66 70 74 67 66 73 78 69 72 70 81 92 98 100 100 100 100 97 89 88 91 71
21 24 30 27 29 49 49 31 38 22 13 14 13 13 14 16 24 24 23 24 28 32 42 47 52 62 67 69 72 75 78 77 81 77 82 86 99 100 99 99 99 99 96 99 96 90 92 80 78
18 22 25 39 39 42 64 38 17 19 14 13 14 14 14 16 19 28 30 30 29 31 36 51 56 65 68 70 75 75 83 91 96 96 87 99 99 99 99 98 99 96 96 98 96 94 93 83 76

GFSSGP_850_rhum_054.txt.gz
RH
16 17 29 30 37 37 37 26 20 20 16 19 28 40 41 65 74 80 92 86 94 86 68 64 87 72 50 56 53 54 53 32 11 14 20 35 32 15 21 32 28 28 30 30 46 55 64 68 75
17 22 30 37 37 39 35 22 19 16 14 30 40 38 55 74 86 82 86 87 82 75 73 66 50 77 69 60 57 57 48 25 14 17 16 13 15 23 33 28 30 25 21 35 51 61 66 69 68
15 20 26 40 39 38 32 20 22 27 31 32 32 60 75 77 55 83 95 92 67 62 82 69 72 74 75 66 61 60 45 20 17 17 14 14 28 32 29 30 24 23 25 33 55 62 68 70 62
22 27 28 32 33 27 23 19 25 32 31 38 44 72 88 96 95 65 85 65 55 59 91 84 64 48 62 73 64 60 41 19 20 17 19 33 41 30 30 26 26 28 24 35 52 61 65 65 64
29 33 33 33 32 26 20 27 26 55 55 56 48 58 71 71 67 57 92 74 52 62 64 64 59 77 96 96 93 61 33 21 18 18 23 32 32 29 28 28 28 28 23 38 55 58 55 58 62
26 29 39 42 30 20 20 26 46 60 53 50 58 67 50 48 58 79 62 86 68 61 80 74 81 88 97 92 94 74 25 19 15 23 34 32 30 31 30 32 30 28 25 30 52 51 58 66 64
29 32 35 29 25 19 22 29 47 66 66 63 60 72 55 60 45 68 70 87 79 82 89 98 100 99 100 86 78 81 33 19 20 36 41 34 32 32 35 35 38 40 40 27 36 50 54 62 64
22 28 29 27 21 21 18 29 42 50 73 62 68 73 76 63 70 77 84 65 96 90 94 97 100 92 84 89 89 68 28 18 26 39 46 40 35 35 37 41 46 48 50 39 28 32 52 60 58
19 30 34 26 17 18 28 33 45 54 62 62 60 67 67 68 83 81 73 60 100 100 96 93 96 86 99 92 80 66 27 28 38 46 43 44 40 39 40 48 49 53 53 46 32 41 48 58 58
22 30 26 19 15 31 60 49 54 56 59 60 59 66 85 97 99 81 63 61 100 86 100 100 100 100 92 89 75 61 28 32 50 49 47 42 41 40 44 53 52 56 56 53 45 46 46 45 48
18 24 16 15 13 32 53 60 54 52 60 82 87 80 90 88 97 98 92 99 100 100 99 100 97 96 88 80 75 35 36 50 48 47 46 43 40 42 48 54 56 57 59 58 60 64 57 50 48
16 14 15 14 18 34 50 52 74 71 85 88 88 86 89 88 80 100 100 100 100 100 100 100 100 98 95 75 40 50 42 47 44 43 44 40 43 47 50 50 58 52 59 64 66 65 61 59 61
21 18 18 15 24 40 42 55 62 90 89 83 83 79 79 90 96 100 100 99 100 99 100 100 99 91 63 40 38 47 53 52 48 44 42 43 46 41 40 55 48 56 62 64 66 67 67 69 68
21 21 20 14 36 39 45 56 51 61 91 82 83 86 95 93 100 99 100 100 100 100 99 100 98 85 51 50 62 53 53 48 44 45 53 50 41 42 46 42 44 58 64 65 71 70 72 72 69
20 24 22 18 33 44 43 47 53 66 82 88 88 91 89 92 98 100 100 100 100 100 99 100 98 89 70 68 66 60 57 52 48 61 66 44 44 50 47 52 61 66 71 75 77 76 79 71 68
24 25 28 20 38 39 41 48 45 58 85 94 89 93 94 98 98 96 100 100 100 99 99 100 99 90 78 61 62 65 68 76 64 70 59 47 48 46 63 67 62 66 83 82 83 81 78 73 71
30 35 31 27 26 44 43 50 50 49 57 96 87 94 85 70 95 98 98 100 100 98 98 99 97 86 67 60 76 69 66 60 70 60 48 52 57 74 73 75 70 74 81 82 83 82 78 77 77
36 34 28 26 34 45 56 56 47 58 75 88 88 96 76 71 76 87 97 100 100 100 100 100 100 90 77 86 73 62 58 71 67 59 47 47 68 76 65 72 78 71 77 82 83 79 79 80 79
28 30 32 24 23 40 50 49 49 56 64 88 95 93 75 65 77 87 89 94 99 99 99 96 98 92 91 80 64 59 56 66 63 54 47 54 64 67 55 71 70 69 69 70 77 78 82 82 80
31 33 32 22 23 26 51 51 51 57 64 64 84 93 86 76 79 83 87 94 98 99 99 98 98 87 79 78 78 77 73 62 58 60 52 53 51 47 44 47 52 54 60 61 74 79 77 84 85
32 34 29 23 23 23 45 50 63 55 58 58 72 75 82 62 63 77 83 90 98 96 88 86 92 90 78 84 83 74 65 59 56 50 47 48 47 46 56 62 60 65 73 66 77 76 77 81 86
36 25 22 25 28 32 25 39 57 61 58 58 63 77 78 78 64 63 68 78 77 75 85 85 87 76 75 82 79 78 64 56 57 53 45 45 47 50 65 71 78 79 73 71 72 76 78 89 92
31 25 25 26 31 33 32 39 36 56 62 60 57 67 72 64 60 60 57 54 55 64 67 70 76 82 78 75 56 58 56 59 59 59 46 48 45 63 69 70 81 77 69 73 72 73 78 89 96
22 22 30 37 39 51 38 39 43 65 49 52 48 56 67 71 63 62 53 55 52 57 58 55 51 64 73 62 52 54 59 64 63 50 62 59 52 67 70 75 72 70 81 73 82 86 82 96 94
24 33 49 53 65 61 40 47 42 40 40 45 45 51 57 68 65 68 66 64 62 60 58 56 54 50 51 50 52 58 60 59 60 68 70 67 59 58 64 71 73 74 81 75 72 88 91 94 96
30 34 57 57 83 66 50 49 32 26 28 38 41 39 47 58 64 64 64 56 60 61 64 66 63 60 57 57 57 57 59 60 60 70 75 75 67 63 61 70 76 68 70 78 91 90 97 98 98
29 36 35 63 68 74 60 46 31 22 21 25 36 36 41 53 55 58 63 62 56 58 59 61 62 63 63 62 63 55 51 60 71 75 79 81 71 68 70 70 78 65 67 75 89 99 100 97 100
26 28 44 60 70 68 64 52 43 29 21 19 24 30 36 42 49 50 62 58 54 53 54 59 62 63 60 61 61 60 60 60 65 70 72 76 74 72 84 76 76 83 78 74 87 96 99 100 100
30 32 36 46 64 67 66 50 43 36 27 21 18 22 27 33 41 46 47 47 45 53 61 65 74 71 72 72 66 66 70 73 76 76 73 71 77 82 84 74 78 91 81 82 93 100 100 100 100
26 31 37 55 56 64 75 50 31 29 24 21 20 19 22 22 25 31 34 40 44 52 66 69 74 74 62 59 38 44 74 83 83 89 87 82 66 85 86 82 89 90 93 99 99 100 100 99 99

GFSSGP_850_rhum_057.txt.gz
RH
16 20 35 31 33 44 45 31 24 23 19 29 35 37 49 70 79 65 96 93 98 96 66 54 49 45 51 61 54 49 47 37 27 35 43 41 38 18 24 28 24 20 24 37 42 45 50 48 38
17 21 29 33 42 40 34 26 23 20 33 40 39 52 58 70 88 84 100 94 96 84 71 50 46 50 48 59 72 52 41 24 33 37 42 41 21 23 27 23 22 26 36 43 45 46 53 51 50
16 21 24 44 44 39 34 24 21 20 38 37 44 71 71 60 68 84 92 87 82 83 73 67 63 55 44 58 81 55 35 19 53 54 44 28 27 29 24 25 27 34 48 54 56 56 57 56 40
26 27 27 38 37 31 26 22 21 42 34 40 53 76 81 63 57 60 78 81 73 68 68 64 60 51 62 87 83 71 40 22 50 39 30 31 30 25 26 21 21 38 51 61 61 58 61 59 60
28 32 37 35 34 28 24 21 29 51 52 46 50 55 74 78 75 66 77 83 88 82 72 78 65 72 83 84 76 81 38 25 48 49 37 34 28 26 21 23 25 41 59 64 62 63 63 65 62
28 29 41 42 33 25 20 22 38 54 50 51 56 58 53 59 73 76 58 69 62 70 91 91 85 87 93 98 98 92 49 20 48 73 49 32 31 24 27 25 27 49 62 59 57 58 62 64 60
31 38 39 34 31 25 20 30 47 58 62 62 63 73 62 60 58 82 89 81 78 77 90 95 88 87 94 92 82 85 66 24 60 73 49 35 30 30 29 25 33 54 61 54 58 58 60 63 63
22 33 31 32 26 22 21 35 46 58 60 58 60 67 82 60 54 75 97 94 88 93 85 87 98 100 97 87 86 73 42 40 61 69 42 38 34 32 30 28 26 42 55 53 60 62 56 56 56
21 34 40 30 22 19 33 40 49 49 57 66 59 66 61 58 74 99 94 74 81 86 76 95 100 99 91 98 82 51 48 50 54 61 42 39 38 36 39 44 42 30 33 46 55 60 60 58 56
26 35 28 24 19 20 50 51 42 56 61 65 65 75 78 99 98 99 88 75 80 97 92 97 99 99 98 88 88 59 40 47 65 66 52 41 40 42 48 52 52 40 30 33 48 58 56 54 50
22 25 19 16 15 17 55 61 58 61 61 72 78 82 90 84 84 99 95 80 81 90 100 100 96 96 79 85 67 60 54 54 53 54 48 44 43 48 52 55 53 47 37 35 43 52 50 41 39
18 17 16 16 16 37 54 49 65 67 67 72 74 82 81 86 85 100 100 94 99 100 100 100 100 94 92 72 79 62 53 56 50 56 55 44 44 52 52 53 53 51 51 45 46 50 48 45 45
20 20 20 20 28 35 44 50 60 92 86 80 80 87 86 93 100 100 100 100 100 100 100 100 97 91 89 86 84 53 42 39 44 61 53 42 45 52 50 50 56 56 57 50 57 63 60 59 60
22 23 22 19 36 43 44 52 54 70 89 86 80 74 91 96 100 98 100 100 98 100 99 98 100 100 88 84 59 47 53 53 63 57 48 43 47 44 49 54 57 56 57 56 62 65 68 70 70
22 25 24 26 41 40 42 47 62 53 89 88 88 84 90 93 96 100 97 99 100 100 100 98 99 99 98 88 56 67 78 74 62 54 46 46 41 44 42 52 58 57 56 61 68 70 72 72 70
26 26 29 22 38 35 40 48 40 68 92 94 93 90 93 100 86 91 96 100 100 100 100 100 100 99 82 71 71 71 67 58 51 47 47 44 44 42 49 53 55 57 64 68 73 76 73 75 72
33 32 30 28 30 39 47 49 44 77 91 92 93 91 90 79 82 92 94 98 100 96 100 100 99 100 86 73 77 80 60 50 63 67 55 54 56 41 59 60 64 62 67 72 78 78 78 78 76
34 36 30 30 28 46 54 55 46 66 73 81 91 94 88 73 78 82 94 99 100 98 100 100 100 99 99 92 84 80 81 65 73 64 53 58 64 56 59 55 61 59 68 65 76 82 82 80 80
28 31 34 31 25 39 48 49 51 66 78 95 90 96 85 65 84 84 82 91 98 99 96 98 99 99 96 81 74 86 89 80 64 60 82 68 58 49 57 68 57 57 65 63 76 80 84 83 82
34 37 38 32 26 39 36 38 49 65 71 86 88 87 84 82 86 81 81 91 98 99 99 96 99 100 90 80 88 83 89 86 67 66 63 66 61 60 65 69 67 69 70 69 72 80 83 84 84
37 40 38 38 28 32 42 38 57 52 58 64 81 76 72 69 77 75 69 86 99 98 97 99 99 100 89 73 82 78 69 62 62 67 65 59 56 63 57 49 53 51 52 62 65 68 82 84 84
40 32 32 30 32 37 29 44 33 60 57 65 64 77 77 73 71 59 49 56 68 94 100 100 100 99 92 88 87 74 60 61 62 59 59 52 52 50 50 50 48 52 62 62 63 66 70 81 83
37 32 35 34 36 35 34 41 36 62 59 51 62 67 67 65 61 53 49 39 49 57 71 82 90 95 86 76 76 71 63 62 59 60 59 52 47 47 49 46 42 64 75 81 83 72 69 75 82
28 30 34 43 44 52 38 40 46 66 54 40 49 59 61 62 63 51 51 44 41 47 59 73 75 72 71 67 71 75 78 74 66 61 58 54 48 45 45 37 46 67 71 75 84 86 86 88 90
31 34 52 50 62 62 44 50 44 36 42 36 44 52 55 58 64 52 57 50 45 47 48 56 66 69 67 65 69 76 72 73 65 54 51 47 43 42 44 45 48 69 75 78 76 78 81 80 78
35 38 60 54 72 54 52 55 41 31 26 31 36 37 48 63 59 59 51 53 43 45 46 48 48 50 63 64 62 55 54 54 47 48 51 49 48 54 56 49 60 69 72 74 75 71 81 84 82
34 42 35 60 73 79 61 47 35 28 27 38 45 43 47 52 57 53 57 54 52 46 47 42 46 45 44 52 54 48 47 48 50 53 57 61 63 70 75 69 65 64 70 76 72 72 76 84 88
28 32 47 61 75 74 59 54 50 36 27 30 34 47 42 45 51 55 58 55 51 49 47 54 50 44 47 49 47 45 46 50 54 56 55 60 64 72 84 86 78 74 72 72 76 73 79 88 97
34 38 39 49 63 64 66 57 44 38 34 27 24 22 34 37 38 43 45 51 52 51 51 54 58 58 53 45 46 45 44 39 46 54 51 52 63 74 83 84 86 80 80 84 83 82 88 94 99
27 36 39 55 54 68 75 46 30 35 35 29 23 17 19 29 26 30 32 43 65 59 56 52 54 59 59 56 55 52 57 56 58 62 57 60 61 76 89 87 74 68 78 99 99 94 92 99 99

GFSSGP_850_rhum_060.txt.gz
RH
16 26 31 30 29 42 41 35 27 25 21 19 37 42 40 51 56 55 89 100 87 87 79 48 41 46 49 61 52 47 42 61 73 74 62 53 45 41 33 45 50 48 34 24 28 25 23 21 19
17 23 28 29 38 39 33 28 25 22 19 43 48 55 58 66 82 80 87 93 98 93 63 49 44 49 61 60 50 46 59 68 54 66 59 50 39 23 29 38 31 23 26 56 50 35 32 23 18
17 24 25 40 46 39 35 25 23 20 29 39 49 67 62 58 80 97 92 97 98 92 53 50 54 57 58 49 47 46 44 44 32 48 51 44 28 32 29 23 22 25 32 52 58 44 27 27 22
28 26 27 40 35 33 28 24 22 26 39 42 56 63 67 51 55 77 83 98 100 88 69 60 59 59 57 56 52 51 48 28 18 27 42 34 37 34 25 28 32 34 40 50 51 36 43 49 29
30 30 40 37 35 31 28 23 22 42 48 48 51 52 74 73 70 71 86 97 90 88 69 66 60 60 65 66 57 52 46 37 38 31 39 40 40 38 35 39 34 36 46 45 53 55 51 47 47
27 30 41 38 33 27 25 20 31 50 48 51 56 55 50 49 61 63 77 94 78 71 84 80 71 69 73 63 75 77 56 46 55 44 35 40 46 44 47 40 40 40 44 53 57 55 57 55 54
30 38 37 35 33 28 18 30 46 50 58 56 54 69 60 53 60 55 64 70 77 77 78 89 92 89 87 90 87 68 82 76 24 24 40 42 42 42 37 42 50 44 56 56 58 62 59 60 57
22 36 35 34 30 25 20 31 43 52 52 57 63 72 73 72 58 48 68 73 76 68 70 92 100 94 96 94 92 89 83 52 64 34 39 37 29 33 40 55 57 58 55 57 59 62 61 58 58
23 36 41 32 27 21 24 34 44 48 60 67 63 63 61 58 70 98 99 92 92 81 74 84 99 100 99 92 84 85 68 66 73 46 38 32 33 37 53 61 62 55 54 52 55 57 55 55 52
28 37 31 27 23 19 18 40 45 55 61 64 62 58 62 73 98 98 100 92 74 72 81 94 100 100 99 85 87 88 76 67 70 50 40 35 34 34 49 60 58 54 54 56 48 53 57 53 48
25 28 22 18 17 17 24 59 53 61 59 53 60 71 79 88 92 98 98 97 82 90 98 100 99 99 94 92 87 71 77 77 77 58 41 37 38 36 33 36 38 44 49 53 52 50 53 45 44
22 20 18 17 20 26 50 48 58 55 45 61 72 81 87 83 99 98 97 94 71 96 100 99 92 83 84 100 83 79 60 72 82 56 41 41 41 50 51 41 33 30 34 42 40 51 43 38 39
20 21 21 20 20 30 45 52 58 71 60 74 82 91 98 96 98 97 100 96 90 99 100 98 94 84 96 83 69 66 69 74 71 61 48 43 47 53 55 50 42 35 38 35 41 44 43 42 39
23 23 25 21 24 38 48 49 53 44 67 82 84 93 100 98 98 98 99 99 99 100 100 100 100 96 99 96 84 72 69 59 65 73 58 46 51 53 55 55 54 50 50 57 58 59 59 62 64
24 27 26 22 32 42 46 50 66 42 66 82 90 93 98 98 98 99 92 100 98 100 100 100 98 96 79 78 80 56 51 49 63 51 63 46 52 53 54 54 56 60 62 60 60 65 71 70 69
26 28 32 22 44 40 42 49 39 50 74 89 92 96 100 97 98 94 95 92 100 99 95 100 99 100 82 86 71 77 65 63 55 52 59 47 52 55 54 54 52 61 63 60 62 68 72 73 69
36 36 30 27 33 48 48 50 50 74 91 90 93 96 99 92 88 82 87 92 100 99 100 100 98 99 100 100 94 70 53 42 56 64 54 48 51 53 55 48 46 62 66 60 64 69 73 75 74
40 39 35 34 28 46 56 57 49 78 91 91 84 93 91 90 80 82 89 92 99 100 100 100 99 100 100 100 84 82 58 65 70 67 55 50 52 49 53 54 55 66 67 68 65 66 67 77 80
29 32 34 32 28 29 35 48 39 56 95 84 80 86 92 87 79 89 91 100 96 97 99 100 99 100 87 98 72 93 85 80 67 57 57 55 63 56 62 64 39 61 61 61 62 63 72 80 82
33 35 38 34 30 34 37 42 44 66 78 77 70 72 79 92 81 93 96 99 97 92 96 98 100 100 87 78 97 74 78 68 57 67 64 67 56 67 57 51 50 58 58 60 54 59 68 77 84
39 41 40 38 36 31 40 44 40 47 60 68 75 66 70 79 80 84 96 99 91 98 96 94 96 100 100 83 90 93 83 72 65 80 63 54 55 75 66 54 66 65 76 61 60 63 65 68 80
41 35 34 37 36 45 35 58 34 36 56 70 69 76 70 70 81 76 73 75 77 86 98 97 97 99 98 99 82 83 72 74 80 67 57 63 54 76 60 63 56 51 50 48 50 55 60 68 77
31 34 38 38 42 38 38 45 39 59 45 49 64 59 57 57 65 70 65 54 55 64 86 99 100 97 96 95 88 77 83 86 91 66 55 54 60 62 64 60 56 52 51 53 55 69 72 76 84
29 32 36 47 48 59 44 43 49 40 41 38 42 45 40 50 58 64 67 58 54 53 67 85 93 96 100 92 78 79 80 75 81 74 69 66 55 54 61 55 50 49 49 46 54 71 77 82 81
33 40 55 55 67 66 44 50 41 35 34 40 37 37 36 40 49 54 65 56 49 46 44 59 77 90 98 94 87 86 73 69 66 62 57 59 56 56 61 54 48 48 49 44 47 68 76 84 90
41 41 63 60 68 53 52 62 42 33 31 26 28 31 36 45 47 45 48 50 45 40 39 42 54 71 83 87 87 81 78 73 68 62 56 52 50 57 54 50 48 48 49 46 48 68 80 83 87
36 46 38 62 73 79 60 46 36 29 29 28 40 43 42 40 42 40 43 49 46 45 38 36 41 47 62 66 66 66 66 69 71 70 69 67 61 60 55 52 49 50 75 74 63 68 75 82 83
32 36 52 63 75 78 59 58 44 33 31 30 33 49 41 40 41 44 42 40 43 46 45 39 36 35 40 44 53 56 57 60 63 63 63 60 55 48 49 50 56 67 74 72 78 82 76 79 80
36 40 42 51 64 60 62 60 47 36 34 37 31 26 28 35 33 34 36 34 37 44 47 47 42 40 34 37 38 39 37 37 41 43 44 44 47 49 53 60 70 81 79 75 83 89 85 87 84
30 40 41 57 54 70 72 45 30 36 34 36 33 22 17 18 22 28 33 43 43 46 46 47 49 46 43 36 35 37 41 39 36 37 40 46 50 54 57 60 64 80 82 68 72 80 79 88 92

GFSSGP_850_rhum_063.txt.gz
RH
16 27 31 31 21 24 25 23 24 21 19 20 42 40 39 52 43 44 79 98 96 77 65 69 72 68 56 51 58 61 64 65 66 63 54 46 44 47 42 48 64 70 60 22 25 53 51 52 22
18 27 30 26 22 23 21 22 21 18 17 28 49 57 50 43 62 65 93 99 96 84 72 65 65 59 53 55 54 53 52 56 67 64 54 52 48 49 53 64 70 62 26 20 23 21 22 19 18
19 26 26 25 29 23 22 20 18 18 19 33 42 66 58 50 56 73 84 99 99 82 72 70 57 58 52 49 52 53 46 43 64 66 56 52 48 51 58 59 52 31 34 48 29 19 17 17 17
23 26 27 28 25 24 22 17 19 19 36 45 54 58 67 63 59 80 89 99 99 93 77 60 72 67 52 52 54 49 49 56 71 67 56 50 45 34 49 45 70 70 86 71 23 20 20 20 19
31 28 27 28 26 25 23 22 22 22 40 48 52 42 64 54 57 66 88 95 99 91 89 75 78 57 65 59 51 56 54 63 69 62 54 45 30 29 42 79 76 75 65 30 36 28 26 19 18
27 29 28 25 24 22 21 21 25 35 43 50 54 50 49 50 64 62 72 78 86 100 78 85 79 66 64 58 64 58 59 57 54 54 45 32 38 46 64 84 51 50 44 39 45 41 41 32 30
26 26 25 27 26 24 18 28 39 36 47 44 53 52 57 50 52 53 57 79 69 87 89 83 73 69 69 78 80 75 58 56 43 43 40 28 35 57 82 56 54 54 51 54 51 49 54 45 38
24 24 32 29 25 21 17 31 34 39 38 53 56 53 58 59 54 52 49 71 86 96 78 81 76 70 75 84 79 82 84 63 58 44 44 36 35 61 66 58 56 59 58 56 57 56 55 49 44
24 27 28 26 26 18 18 27 36 41 55 58 56 57 54 53 55 61 72 90 92 82 84 96 86 80 83 88 86 79 76 78 63 45 47 42 53 59 60 58 58 58 60 62 61 59 53 47 44
24 28 25 21 20 17 17 22 26 48 58 60 58 54 54 60 78 95 98 97 99 78 83 87 97 95 99 99 87 69 77 54 57 51 49 46 44 45 60 60 56 55 60 62 57 54 51 45 43
27 23 22 18 19 19 19 37 45 48 46 52 56 53 62 75 86 91 96 97 99 83 78 70 99 100 100 100 94 95 93 89 80 68 40 38 50 60 62 60 56 57 57 61 57 56 52 44 40
23 21 19 16 18 25 25 42 54 58 48 50 52 58 66 84 98 95 97 99 99 91 92 100 100 87 98 98 99 91 92 85 88 62 38 40 52 62 60 59 56 54 55 56 57 55 45 42 41
22 18 20 18 22 26 38 41 46 57 49 61 59 68 90 98 94 91 85 97 96 98 99 96 100 99 97 92 86 92 86 95 85 70 42 41 45 56 58 57 55 56 56 49 52 47 38 38 39
23 21 21 24 22 30 40 42 52 42 52 72 67 83 99 96 97 94 93 85 97 99 99 91 87 96 100 91 98 94 86 78 75 71 51 38 32 34 35 36 40 46 47 48 47 39 40 45 42
26 26 24 22 22 30 45 39 48 46 62 92 98 85 99 99 96 97 97 96 100 99 100 99 82 91 100 100 96 92 94 90 77 62 54 42 45 49 43 35 38 43 41 53 58 55 62 65 66
26 28 29 19 37 40 40 27 30 49 80 98 100 100 99 96 94 98 100 100 100 99 98 97 98 99 99 92 92 78 82 88 79 74 60 44 52 54 52 46 42 46 51 66 65 67 66 64 66
33 28 28 22 28 40 40 30 35 65 82 79 94 100 98 98 96 86 83 94 100 100 97 98 99 100 98 87 83 79 82 82 76 68 62 48 50 57 59 60 58 56 60 63 68 68 67 68 70
33 34 32 28 30 35 38 36 28 62 81 71 81 97 99 100 88 76 82 81 100 100 100 100 100 100 100 98 99 86 85 75 74 66 54 58 52 58 60 62 63 63 61 61 70 71 67 74 78
28 29 29 25 22 26 30 32 26 38 76 76 79 87 100 100 83 81 89 93 98 100 100 100 100 100 98 87 90 77 65 66 76 76 60 66 55 62 62 61 62 64 60 58 67 65 66 69 74
28 30 30 27 27 27 27 28 24 39 48 63 65 76 91 98 89 90 97 99 98 100 100 100 100 100 100 98 98 88 86 67 60 69 74 58 62 62 61 60 59 61 64 49 64 60 65 72 74
33 33 34 28 30 28 33 31 27 30 50 62 66 64 76 77 82 78 76 91 100 95 97 98 99 99 100 100 100 84 87 90 62 72 65 57 64 60 58 60 59 69 66 53 60 65 68 62 59
36 31 29 31 29 35 30 38 30 24 31 47 51 69 75 86 85 78 77 76 95 95 94 93 96 100 100 99 93 74 90 62 80 78 78 69 64 63 69 68 60 74 64 63 61 59 64 60 61
25 31 32 32 34 39 36 36 29 34 29 24 31 54 65 62 68 67 61 52 50 91 98 95 90 96 100 100 90 95 61 76 78 66 67 65 74 72 63 54 61 70 56 60 53 58 63 66 72
28 31 38 43 42 52 36 35 29 30 26 25 27 39 57 59 60 66 62 58 48 54 83 92 96 97 98 100 88 89 65 79 76 79 62 75 63 56 54 55 68 66 60 57 56 55 56 66 75
30 34 45 53 58 50 40 40 28 26 24 27 27 27 40 51 53 68 70 66 55 47 62 87 88 86 90 97 90 93 74 87 71 61 60 75 63 58 56 56 68 65 60 57 55 53 52 52 65
35 31 48 53 55 42 46 44 27 28 27 29 29 31 36 42 44 49 56 57 47 43 47 56 66 77 83 91 91 94 87 82 69 63 60 74 64 59 58 54 61 58 60 59 54 53 50 53 63
39 41 32 53 66 58 44 41 30 24 22 24 25 40 47 61 48 41 49 53 53 43 36 35 47 57 69 72 80 84 79 76 73 78 88 79 72 64 59 57 57 55 58 58 54 49 58 69 63
31 32 40 50 52 59 48 48 33 27 24 24 28 28 42 51 52 49 45 44 49 47 42 35 33 34 41 55 64 65 69 73 72 73 70 72 72 68 63 62 58 51 59 58 52 60 71 77 72
34 36 42 40 50 47 47 41 41 30 29 29 32 30 25 32 41 41 41 46 48 50 48 45 37 33 33 38 44 54 56 61 65 65 64 65 66 64 58 56 56 57 56 51 60 65 79 82 80
29 33 36 46 53 59 58 38 29 32 31 34 30 25 20 16 20 31 39 41 45 47 50 49 49 41 35 31 33 35 40 50 58 52 44 52 50 51 51 58 57 51 49 57 76 82 80 88 85

GFSSGP_850_rhum_069.txt.gz
RH
13 16 26 21 16 11 10 9 8 9 10 12 15 16 16 19 16 25 68 76 63 74 94 75 62 64 88 83 73 67 59 53 54 53 51 45 44 51 41 28 79 76 73 62 62 63 62 69 61
26 28 25 18 13 12 9 8 10 8 9 12 16 18 17 17 22 24 47 87 77 83 97 89 65 67 85 84 75 71 65 57 59 54 49 43 59 65 53 39 74 74 40 40 50 73 44 55 66
28 26 20 13 13 12 10 9 9 9 11 11 14 17 19 20 34 46 72 86 63 92 95 96 69 74 86 91 80 78 70 61 63 56 45 37 57 71 73 66 51 62 35 22 48 43 42 55 68
23 18 16 13 11 10 11 9 10 10 11 14 14 15 23 44 46 58 74 86 89 95 98 92 76 80 85 75 83 82 74 66 65 57 43 40 50 63 66 68 62 48 28 41 36 23 35 53 59
19 15 14 12 11 9 10 10 11 11 12 16 18 16 17 48 58 66 78 89 97 96 93 96 90 86 78 64 84 89 79 73 68 58 44 46 49 67 69 73 62 25 22 25 21 20 27 32 29
16 13 14 12 8 8 10 10 11 11 12 13 18 18 19 45 53 68 64 86 96 89 94 97 91 80 77 86 69 58 97 79 69 58 46 46 52 68 73 65 38 22 18 18 19 20 21 22 25
15 13 13 9 8 9 10 11 12 11 11 11 17 20 21 40 58 67 75 84 95 63 85 89 99 85 81 77 65 77 99 80 73 60 50 51 58 62 66 63 40 23 17 18 18 19 18 19 21
14 12 12 10 9 9 9 10 12 12 12 22 18 17 19 56 68 77 81 86 92 78 70 88 92 93 73 63 61 77 98 79 74 62 56 62 66 60 60 70 71 22 20 20 19 18 18 21 23
14 14 13 10 9 9 9 11 12 12 15 13 22 29 34 56 62 68 74 85 95 91 79 83 90 99 98 89 75 88 78 99 83 70 70 68 67 68 66 82 77 29 25 20 22 27 28 27 26
13 12 11 8 8 8 8 10 10 12 12 12 16 27 41 53 55 56 58 72 84 99 92 92 87 92 96 94 86 86 98 95 96 86 73 62 68 84 76 81 59 36 41 39 36 35 31 32 30
12 13 9 8 8 9 9 10 11 12 13 12 18 21 35 50 56 63 65 78 80 93 80 93 91 90 99 92 86 93 91 100 97 91 72 51 79 85 75 73 47 49 52 51 44 39 52 66 62
12 10 10 8 8 10 10 11 11 12 13 15 23 30 37 55 56 54 64 77 93 86 97 92 87 87 94 96 96 91 83 94 92 98 85 75 79 76 82 62 57 56 57 56 44 60 66 68 64
11 10 10 9 8 9 11 11 12 12 12 15 28 45 44 53 56 57 67 89 91 97 99 76 73 72 83 93 94 94 98 99 96 87 81 79 91 79 72 73 68 65 82 73 75 73 73 71 68
10 10 11 9 9 10 10 11 12 12 13 16 28 40 45 56 54 55 70 90 94 99 86 72 66 66 84 96 96 100 98 99 99 84 81 84 92 79 80 83 83 79 74 76 71 70 73 68 67
11 12 10 10 9 9 9 12 13 11 11 17 25 37 43 51 55 58 64 96 80 98 98 86 90 85 89 100 100 85 99 99 98 92 97 93 73 74 87 84 77 70 71 71 69 74 66 64 64
14 13 15 11 10 10 11 17 10 11 16 20 27 32 42 49 53 55 71 90 92 92 98 97 98 94 94 100 100 93 100 100 98 98 88 80 62 56 81 85 81 76 78 75 70 68 62 60 60
17 18 16 14 10 10 12 15 10 18 18 20 23 30 40 44 53 55 68 81 85 91 96 100 92 98 99 99 100 99 98 100 100 89 82 84 79 64 54 75 77 76 74 69 68 66 62 63 60
19 17 16 16 11 11 12 16 12 14 18 20 21 27 37 44 46 53 68 82 70 95 99 99 90 98 96 100 100 100 100 100 100 86 70 84 83 77 72 78 75 77 76 75 71 68 72 69 67
15 14 15 14 10 13 14 12 11 10 13 17 21 23 31 40 43 53 70 84 98 88 100 98 98 100 98 99 99 99 100 99 100 81 57 54 80 86 59 61 55 66 74 74 74 78 81 78 74
17 16 16 13 11 13 13 11 9 9 10 13 17 21 25 39 44 56 70 85 100 91 86 96 98 100 98 100 98 99 98 97 88 77 66 85 81 71 48 54 53 52 53 87 87 90 89 90 81
20 21 19 17 13 15 15 15 12 10 10 11 14 16 20 31 44 54 64 76 95 98 92 99 95 100 98 100 99 99 98 96 92 78 78 79 92 80 60 66 51 48 60 89 86 88 87 74 79
24 16 16 16 17 21 13 18 14 11 12 12 14 17 18 27 42 49 60 68 85 96 98 98 99 98 100 99 100 98 98 97 85 69 68 84 68 56 50 60 58 58 72 89 88 77 81 71 78
24 17 16 17 20 20 18 17 14 12 11 11 10 13 20 24 38 46 56 60 70 93 97 98 99 100 99 100 99 91 86 96 97 86 72 92 88 69 58 59 64 62 75 72 70 69 67 69 73
16 19 19 20 22 31 22 20 18 14 12 12 10 11 18 24 34 43 50 56 58 84 98 98 98 97 99 99 100 95 90 97 89 89 86 80 78 70 69 59 62 67 70 65 68 79 73 75 73
18 23 32 36 35 36 18 20 18 12 11 12 12 12 17 22 32 42 46 53 54 68 88 99 99 98 99 97 95 98 99 94 82 94 99 83 67 64 55 71 70 74 71 82 66 69 60 74 62
22 23 32 44 42 30 19 25 19 13 11 13 14 14 15 21 32 40 43 49 52 62 76 86 95 100 98 100 99 92 97 98 82 88 95 86 62 54 56 62 79 69 72 66 77 63 73 60 59
24 27 19 26 34 36 24 21 17 15 13 12 12 15 17 20 29 38 42 47 52 58 71 81 83 83 99 98 99 98 99 97 97 97 94 90 66 66 54 64 66 67 66 68 76 75 70 59 57
29 20 30 25 49 52 32 26 23 18 15 13 14 16 18 21 26 35 40 48 52 56 63 76 81 76 80 99 97 97 98 98 100 100 94 87 65 55 57 67 64 64 66 68 65 67 69 70 76
30 28 26 24 28 39 42 33 18 18 17 15 16 16 19 26 27 33 38 45 51 56 60 69 76 72 72 83 93 99 98 96 97 96 91 90 85 61 65 74 70 62 67 68 69 64 74 80 82
27 27 28 36 37 30 37 40 17 17 16 16 16 16 17 18 28 32 37 42 52 56 61 63 69 70 69 75 82 90 95 98 94 90 92 87 86 86 85 85 83 77 77 80 77 78 78 79 83

GFSSGP_850_rhum_072.txt.gz
RH
10 11 20 24 21 17 15 10 7 9 8 10 12 13 15 15 13 35 65 62 41 77 64 73 62 60 64 74 68 61 54 49 48 46 44 39 35 35 40 38 36 54 76 78 81 82 76 66 59
11 24 24 19 23 20 12 8 9 8 8 10 10 12 14 16 27 38 59 62 39 75 83 68 67 59 67 74 74 69 60 56 53 52 48 37 38 42 58 77 72 60 74 84 81 87 69 61 62
17 25 20 20 19 17 13 8 8 8 9 10 9 11 15 16 34 40 50 34 32 57 86 88 75 62 70 84 96 83 66 60 55 57 49 40 42 53 70 79 84 59 49 92 89 45 60 65 72
22 21 18 18 15 11 9 9 9 9 9 11 12 13 15 30 34 44 34 29 32 73 89 84 87 72 67 84 90 95 77 63 58 59 49 44 46 45 66 78 83 63 63 94 70 43 60 70 72
22 15 17 17 14 10 8 9 9 10 9 12 13 15 18 47 31 25 29 28 37 71 87 86 87 83 74 89 89 96 90 72 62 64 52 47 46 56 60 79 86 62 28 44 21 44 50 58 62
18 14 18 16 12 8 7 9 9 10 10 10 11 15 23 49 51 41 27 29 32 53 86 90 90 88 85 84 94 87 92 99 79 72 48 58 52 58 54 73 88 84 34 21 19 28 35 36 40
17 14 16 14 12 9 7 10 10 10 10 10 16 18 17 40 48 39 44 56 68 50 87 92 91 73 83 84 91 82 79 77 99 73 46 58 60 59 67 68 54 51 26 19 16 18 26 23 55
16 14 15 13 12 10 7 10 11 11 11 14 14 14 22 54 46 45 61 60 81 87 57 87 94 95 91 78 74 76 73 67 81 87 50 66 64 64 71 58 31 33 21 17 18 18 18 25 49
14 16 17 14 11 9 7 10 10 10 10 12 12 17 23 51 55 57 67 75 81 86 94 80 92 95 100 97 95 89 75 65 99 76 54 72 67 73 69 48 27 21 19 18 19 17 18 22 51
13 17 15 10 8 8 7 7 10 10 11 11 11 16 31 44 48 51 53 55 70 81 84 84 81 92 99 98 94 77 88 62 95 78 70 78 77 69 83 68 23 22 20 19 17 19 23 26 61
13 16 12 9 8 8 8 8 8 9 11 12 13 19 24 42 44 52 56 59 72 78 88 77 82 86 92 92 99 96 94 90 79 97 88 77 73 76 89 74 26 21 20 23 27 28 26 40 64
13 10 11 10 9 9 8 8 9 9 11 12 12 20 27 33 47 49 52 56 72 82 81 86 87 85 92 91 90 94 98 91 95 99 89 66 67 71 86 78 35 33 35 34 32 32 33 44 63
12 10 9 9 9 9 8 9 10 10 10 11 11 29 37 37 48 48 52 61 69 86 93 91 88 85 90 95 91 88 96 95 98 100 86 73 71 83 91 70 44 50 43 36 49 69 65 47 67
12 9 8 9 9 9 8 9 9 10 10 11 12 23 37 41 48 46 56 73 80 88 98 70 73 75 76 86 97 90 96 79 97 97 86 68 72 69 82 57 50 60 51 41 73 76 70 66 67
12 13 11 10 9 10 9 10 10 9 10 11 11 17 30 39 45 51 53 69 87 86 94 75 74 76 80 94 91 87 96 93 91 88 81 79 62 61 81 60 56 70 62 53 74 74 73 69 68
15 14 17 11 10 9 10 15 10 9 10 10 14 18 29 37 43 50 54 75 89 99 99 82 79 85 97 94 100 100 100 100 94 93 85 80 76 81 76 72 63 80 75 66 76 68 69 66 65
19 21 17 14 9 10 11 14 10 10 13 13 15 20 26 35 43 47 56 71 86 100 98 91 80 84 96 99 99 99 99 99 93 91 86 88 86 84 85 69 75 76 73 72 74 66 64 64 64
28 20 17 17 12 11 12 12 11 12 15 15 15 16 24 34 38 47 57 67 83 100 97 99 80 92 95 100 100 100 99 100 98 97 90 89 83 89 63 81 83 90 87 74 71 65 61 60 59
22 20 18 13 11 13 14 13 11 10 11 15 16 18 22 33 38 44 58 71 86 100 100 99 82 94 100 100 98 99 94 100 99 97 95 86 72 72 82 85 79 72 72 72 71 65 64 69 66
23 26 23 15 12 13 13 14 11 10 10 11 15 17 19 30 37 46 63 75 86 96 99 89 91 89 99 98 98 99 93 100 98 97 87 91 88 82 84 76 71 74 74 72 70 68 72 73 69
25 26 25 20 14 13 13 16 15 11 9 9 10 13 17 28 36 46 62 76 87 85 99 92 99 91 99 99 99 100 100 100 100 98 87 84 79 88 78 78 74 70 63 65 67 64 73 75 75
28 21 21 20 21 25 15 23 16 13 12 10 11 13 14 18 36 44 56 71 83 90 96 100 100 92 99 100 99 98 97 97 95 87 86 75 65 54 61 72 60 51 48 51 59 61 69 78 70
28 27 31 21 22 24 19 22 18 12 13 12 12 13 15 15 35 41 52 63 77 84 100 99 96 92 98 99 98 98 99 99 89 70 61 53 67 80 84 78 67 49 47 50 47 57 72 72 76
26 32 44 29 26 35 23 24 22 17 14 11 11 10 15 18 33 39 48 56 68 82 94 99 99 98 97 99 100 95 91 96 94 81 62 78 87 76 81 82 74 51 54 42 45 65 82 69 82
35 59 76 56 44 43 22 24 22 15 12 11 11 10 14 19 29 37 48 53 59 77 71 98 99 100 99 98 99 98 96 95 94 82 62 65 89 84 77 78 65 62 57 50 58 68 82 74 68
38 50 49 64 53 38 22 27 20 13 10 11 12 11 14 18 25 36 44 49 52 69 78 84 96 98 99 99 98 96 100 92 99 90 81 66 66 75 70 60 61 57 58 66 69 72 73 63 70
53 47 32 39 40 50 30 20 18 13 12 12 12 13 14 15 26 34 40 46 50 59 76 84 90 94 98 98 98 99 99 97 99 95 84 86 74 57 62 66 53 56 58 63 65 65 66 60 63
56 42 57 36 60 81 40 32 25 20 16 13 13 16 17 17 22 32 38 44 49 53 64 78 85 91 92 95 97 98 100 98 98 96 92 97 87 70 59 68 62 62 66 61 59 67 67 66 71
53 41 42 34 33 55 60 42 44 25 16 16 18 17 19 22 22 31 36 43 47 51 58 67 78 80 84 86 87 96 99 98 98 94 90 89 96 93 93 72 61 54 54 55 67 67 65 70 73
41 47 39 52 53 36 48 41 28 21 17 18 16 15 18 19 26 30 34 41 46 50 55 60 68 72 75 77 80 82 90 99 98 97 92 91 86 86 86 84 69 60 61 56 57 62 64 67 67

GFSSGP_850_rhum_075.txt.gz
RH
9 10 19 27 37 35 33 22 14 11 15 12 12 15 18 16 20 54 65 48 45 40 44 42 54 60 57 54 56 51 49 48 47 46 39 40 40 37 35 30 27 30 52 72 56 70 59 68 68
10 19 25 26 37 42 35 17 15 13 12 10 10 10 15 30 46 62 55 45 60 46 33 44 57 61 60 58 59 57 54 52 48 48 40 37 33 31 32 32 50 71 73 75 81 64 56 61 60
11 26 29 36 40 37 33 14 11 11 10 10 10 10 13 36 43 50 36 23 27 46 48 43 56 63 63 64 67 65 60 55 50 52 45 34 32 34 33 50 71 74 77 79 69 68 66 66 68
14 26 26 29 34 26 21 15 11 11 10 10 11 15 28 30 28 28 23 19 20 27 40 44 63 70 67 75 73 72 66 59 51 56 48 35 36 43 56 57 72 76 80 89 56 57 64 67 74
17 24 31 34 28 19 14 11 10 12 12 13 14 16 28 37 36 26 21 20 21 29 48 71 78 78 74 70 88 92 76 82 59 60 50 51 42 57 62 67 68 80 81 46 38 59 70 66 68
23 20 32 33 24 16 13 10 11 13 11 10 11 15 40 40 31 28 28 27 27 33 56 81 90 88 90 80 82 93 99 98 95 99 73 52 54 68 70 68 65 78 58 39 42 63 67 61 66
28 31 30 26 22 17 13 10 13 12 11 13 15 18 51 47 34 34 33 34 31 44 54 75 93 92 91 88 86 82 75 67 76 66 99 85 62 75 81 67 54 51 39 40 45 54 60 61 64
22 29 30 24 22 19 11 11 11 11 12 12 15 17 52 46 38 40 38 42 45 44 58 79 98 95 92 78 91 65 70 79 76 74 90 88 82 75 70 62 55 34 27 37 38 40 40 54 63
23 28 30 24 20 16 11 12 11 10 10 11 12 12 15 38 40 36 40 53 66 64 61 59 97 100 96 84 87 86 86 76 80 70 70 92 87 79 75 68 38 30 23 26 28 24 40 63 65
24 27 24 17 15 15 11 10 11 12 12 12 12 24 31 35 33 34 50 59 71 81 79 70 81 94 100 98 78 92 84 73 65 80 78 99 85 78 66 60 30 21 23 23 22 22 54 63 66
22 25 17 16 14 13 13 11 8 11 13 12 18 26 29 34 36 44 53 56 62 64 65 84 83 81 87 98 94 96 93 77 72 81 96 98 86 83 60 49 33 23 19 21 22 25 53 64 63
27 19 17 15 13 13 12 10 10 10 11 11 11 13 31 36 41 46 49 55 60 67 74 68 75 78 89 99 87 84 84 87 94 98 99 84 87 71 65 38 23 22 19 18 19 23 45 63 67
24 19 15 13 12 11 11 11 11 10 9 10 11 18 23 32 38 48 49 54 60 64 68 76 80 83 87 100 93 87 94 92 87 82 98 88 73 71 72 26 22 21 20 21 25 26 59 68 69
20 18 16 14 12 10 11 11 11 9 8 10 10 19 24 27 36 48 49 51 56 66 75 74 82 82 85 99 95 91 82 90 82 89 97 82 61 75 64 32 22 23 29 30 27 29 63 68 62
20 23 18 16 13 12 10 15 14 10 9 9 10 11 26 31 40 47 48 52 61 71 78 74 71 70 71 82 91 87 85 99 86 83 99 79 67 64 49 42 33 35 36 50 59 45 48 67 69
30 23 27 18 15 13 14 18 14 10 10 9 9 10 31 36 40 46 49 52 73 72 90 83 76 65 64 71 92 98 88 89 92 89 84 80 70 70 66 39 44 42 42 73 72 71 68 68 65
32 36 31 21 14 14 14 16 12 10 10 13 13 14 26 35 40 44 49 54 61 69 97 94 74 64 73 85 96 97 98 99 94 93 90 73 74 64 72 42 49 48 48 74 79 74 69 69 64
43 37 29 23 17 14 16 15 12 12 13 14 14 15 26 34 38 44 48 55 60 75 99 99 80 68 72 78 100 100 99 100 98 91 92 78 82 72 73 49 56 55 56 65 80 71 65 66 66
35 34 34 23 16 17 18 15 14 13 13 20 17 15 19 34 37 44 49 56 61 78 99 100 88 96 83 84 98 100 99 100 99 100 90 89 82 78 70 61 66 80 68 67 78 68 65 66 67
34 35 33 26 21 21 22 25 16 15 16 14 19 17 18 34 40 47 52 59 60 69 97 100 92 100 98 95 87 99 100 100 99 96 93 89 85 80 71 68 85 73 81 78 77 65 63 63 63
37 38 31 29 23 23 21 21 17 15 14 12 15 16 17 35 42 48 54 58 59 65 97 100 94 100 98 99 97 90 99 100 100 100 99 98 90 83 84 87 72 73 78 77 76 65 63 69 64
52 37 31 27 32 60 35 37 24 17 16 15 13 17 18 35 41 46 53 58 56 57 95 99 99 99 99 90 99 99 98 98 98 97 95 92 84 74 79 63 87 90 82 78 72 68 65 69 57
45 41 43 48 63 61 52 36 26 20 20 17 14 17 19 34 39 44 47 50 52 60 84 99 100 100 98 98 91 98 99 96 98 100 94 84 72 78 87 84 81 75 72 70 68 69 63 66 66
49 57 48 60 64 84 58 42 31 24 21 18 14 17 14 37 40 42 46 54 57 62 88 96 99 99 98 99 94 91 94 98 96 100 91 87 93 82 83 88 79 76 66 62 58 57 63 68 68
54 67 90 91 94 90 39 38 28 24 18 16 17 18 16 36 41 46 51 58 61 64 67 99 99 98 95 97 96 92 87 91 91 94 96 84 83 83 80 74 73 67 65 66 52 52 66 72 70
54 87 84 92 87 56 31 38 28 19 16 13 11 13 19 33 39 43 49 52 53 59 63 91 99 98 98 98 95 96 92 88 91 86 81 79 75 77 82 84 77 63 61 63 51 53 54 53 61
74 96 62 83 60 91 59 26 21 18 17 17 16 16 24 34 40 43 48 49 49 53 61 55 83 100 99 97 96 95 95 94 92 88 84 70 60 57 66 68 67 71 67 72 65 59 57 67 67
69 56 83 99 93 93 60 52 34 23 20 19 17 20 19 28 39 42 46 48 48 48 53 64 57 64 88 98 97 96 95 98 99 91 82 85 73 57 68 77 78 83 69 73 71 65 61 68 69
86 93 91 88 89 77 90 76 55 42 28 24 27 23 22 27 37 39 43 46 45 48 51 55 65 70 71 79 97 98 97 97 97 98 90 89 86 69 59 59 66 68 64 61 63 67 61 60 64
60 89 86 99 83 63 67 80 49 34 26 25 25 19 19 24 32 38 40 44 47 48 50 53 58 67 78 75 79 82 99 97 98 96 99 94 91 88 83 78 67 57 53 56 60 62 60 61 61